Use pyReScene to create SRRs from your collection and upload them here.

PRE DATA

Datetime Category Release
2016-06-24 00:02:28 MP3 Stary_Olsa-Kola_rycerska-WEB-BY-2016-I_KnoW_INT
2016-06-24 00:03:23 MP3 Mentally_Restarted--A_Soundscape-WEB-2016-WUS
2016-06-24 00:05:29 MP3 Perturbator_-_Sexualizer_EP-WEB-2013-ZzZz_INT
2016-06-24 00:10:27 MP3 Noisecontrollers_And_Bass_Modulators_-_Holding_On-WEB-2016-HB
2016-06-24 00:12:44 SDTV UEFA.Euro.2016.Group.F.Iceland.vs.Austria.WEB.h264-OVERTiME
2016-06-24 00:16:59 GAMES Rover.The.Dragonslayer.RIP-ALiAS
2016-06-24 00:17:05 XXXSD Hotwifing.DISC1.XXX.DVDRip.x264-MrsPalmer
2016-06-24 00:18:02 EBOOK MICROSOFT_10983A_PART_1_TRAINER_FILES_UPGRADING_YOUR_SKILLS_TO_WINDOWS_SERVER_2016_TUTORIAL-kEISO
2016-06-24 00:19:24 MP3 Garden_Centre--Garden_Centre-WEB-2016-WUS
2016-06-24 00:19:33 DVDR Sheena.S01E01.DVDRip.x264-SFM
2016-06-24 00:20:26 MP3 Destrada--Black_Pyramids_EP-WEB-2016-WUS
2016-06-24 00:20:27 TV-X264 Banshee.Small.Town.Big.Secrets.S04E06.Fuehrungswechsel.GERMAN.DL.DUBBED.1080p.HDTV.x264-TVP
2016-06-24 00:20:38 XXX-SD Hotwifing.DISC2.XXX.DVDRip.x264-MrsPalmer
2016-06-24 00:20:41 TV-DVDRIP Sheena.S01E02.DVDRip.x264-SFM
2016-06-24 00:21:00 MP3 Teaman--Banckruptcy-WEB-2016-WUS
2016-06-24 00:21:45 DVDR Sheena.S01E03.DVDRip.x264-SFM
2016-06-24 00:22:31 TV-X264 Banshee.Small.Town.Big.Secrets.S04E06.Fuehrungswechsel.GERMAN.DL.DUBBED.720p.HDTV.x264-TVP
2016-06-24 00:23:29 TV-DVDRIP Sheena.S01E04.DVDRip.x264-SFM
2016-06-24 00:24:36 TV-X264 Banshee.Small.Town.Big.Secrets.S04E06.Fuehrungswechsel.GERMAN.DUBBED.WS.HDTVRip.x264-TVP
2016-06-24 00:25:15 TV-DVDRIP Sheena.S01E05.DVDRip.x264-SFM
2016-06-24 00:26:25 TV-DVDRIP Sheena.S01E06.DVDRip.x264-SFM
2016-06-24 00:26:43 TV Empire.S02E04.Totengraeber.GERMAN.DUBBED.DL.1080p.WebHD.x264-TVP
2016-06-24 00:27:02 TV-HD-X264 Rosewood.S01E21.SPANiSH.720p.HDTV.x264-sPHD
2016-06-24 00:27:25 TV-SD-X264 Rosewood.S01E21.SPANiSH.HDTV.x264-FCC
2016-06-24 00:28:47 TV-HD-X264 Empire.S02E04.Totengraeber.GERMAN.DUBBED.DL.720p.WebHD.h264-euHD
2016-06-24 00:30:00 MP3 Pumajaw_-_Song_Noir-2014-ZzZz
2016-06-24 00:30:53 TV-X264-SD Empire.S02E04.Totengraeber.GERMAN.DUBBED.WebHDRiP.x264-SOF
2016-06-24 00:33:32 XXX Sara.Tommasi.La.Mia.Prima.Volta.2012.iTALiAN.XXX.DVDRip.x264-LVPANARi
2016-06-24 00:35:32 TV-HD-ES Rosewood.S01E21.INTERNAL.SPANiSH.720p.HDTV.X264-LPH
2016-06-24 00:38:39 MP3 Young_Mezzy-Hoodrat-Single-WEB-2013-ENRAGED
2016-06-24 00:38:51 MP3 Young_Mezzy-Still_Waiting-WEB-2014-ENRAGED
2016-06-24 00:39:03 MP3 Young_Mezzy-This_1z_for_U-EP-WEB-2015-ENRAGED
2016-06-24 00:39:14 MP3 Young_Mezzy-Whip_Dancin_(feat_Fresh)-Single-WEB-2015-ENRAGED
2016-06-24 00:39:25 MP3 Young_Mezzy-This_1z_for_U_2-EP-WEB-2016-ENRAGED
2016-06-24 00:39:39 MP3 Young_Mezzy-Say_It_Backwards_2-WEB-2016-ENRAGED
2016-06-24 00:40:12 XXX-IMAGESETS Domai.com_16.06.23.Black.Mo.Set.2.XXX.IMAGESET-GAGBALL
2016-06-24 00:42:15 XXX-IMAGESET Babes.com_16.06.22.Ella.Hughes.And.Rebecca.Moore.Sneaky.Boy.XXX.IMAGESET-FuGLi
2016-06-24 00:43:01 XXX-IMAGESETS GoddessNudes.com_16.06.23.Dama.Set.2.XXX.IMAGESET-GAGBALL
2016-06-24 00:44:38 MP3 Normaal-Ajuu_de_Mazzel-NL-WEB-2016-AZF
2016-06-24 00:46:42 IMGSET SexArt.com_16.06.23.Stefan.and.Talinka.A.Ahronia.XXX.IMAGESET-GAGBALL
2016-06-24 00:49:01 TV Arvingerne.S01E07.FRENCH.1080p.HDTV.x264-Ryotox
2016-06-24 00:50:55 XXX-0DAY VivThomas.com_16.06.23.Alexa.Tomas.and.Dorothy.Black.Fable.XXX.IMAGESET-GAGBALL
2016-06-24 00:52:01 MP3 2_Live_Crew_And_Rock_On_Crew_-_Deal_With_This-1992-CMG
2016-06-24 00:52:32 XXXPAY Stunning18.com_16.06.22.Karen.Rendezvous.XXX.IMAGESET-GAGBALL
2016-06-24 00:53:03 XXX-IMAGESETS PlayboyPlus.com_16.06.22.Deanna.Greene.Show.Me.Your.Room.XXX.IMAGESET-GAGBALL
2016-06-24 00:54:53 XXX-IMAGESETS PlayboyPlus.com_16.06.23.Kailena.Feels.Like.Heaven.XXX.IMAGESET-GAGBALL
2016-06-24 00:55:59 XXX-IMGSET AuntJudys.com_16.06.23.Savannah.Fyre.Over.30.XXX.IMAGESET-GAGBALL
2016-06-24 00:57:38 XXXPAY AuntJudys.com_16.06.23.Constance.Upskirts.And.Panties.XXX.IMAGESET-GAGBALL
2016-06-24 01:00:55 XXX-IMGSET ATKPetites.com_16.06.23.Zaya.Cassidy.Amateur.XXX.IMAGESET-GAGBALL
2016-06-24 01:06:13 XXX HollyRandall.com_16.06.23.Clara.G.Dirty.In.Denim.XXX.IMAGESET-GAGBALL
2016-06-24 01:13:03 TV-X264 Nazi.Mega.Weapons.S03E02.Hitlers.Killer.Subs.EXTENDED.CUT.720p.HDTV.x264-DHD
2016-06-24 01:21:00 SPTVHD Dragon.Ball.Z.El.Regreso.De.Broly.1994.ANIME.SPANiSH.1080p.BLURAY.X264-LPH
2016-06-24 01:21:20 TV-XVID Dark.Net.S01E06.2016.SPANiSH.DOC.HDTV.X264-LPH
2016-06-24 01:37:41 TV Seraph.of.the.End.E01.Das.Bluterbe.der.Welt.German.2015.ANiME.DL.720p.BluRay.x264-3MiNA
2016-06-24 01:38:24 ANIME Seraph.of.the.End.E01.Das.Bluterbe.der.Welt.German.2015.ANiME.DL.1080p.BluRay.x264-3MiNA
2016-06-24 01:38:55 TV-HD-X264 Dark.Net.S01E06.2016.SPANiSH.DOC.720p.HDTV.X264-LPH
2016-06-24 01:39:14 TV-DVDRIP Seraph.of.the.End.E01.Das.Bluterbe.der.Welt.German.2015.ANiME.DL.BDRiP.x264-3MiNA
2016-06-24 01:39:29 MP3 Remoe-Fokus-WEB-DE-2016-VOiCE
2016-06-24 01:43:37 MP3 Bicks_Boogie-Appreciate-Single-WEB-2015-ENRAGED
2016-06-24 01:43:50 MP3 Bicks_Boogie-What_If_I_Told_You_(feat_Phelix_And_Parrish)-Single-WEB-2015-ENRAGED
2016-06-24 01:44:03 MP3 Bicks_Boogie-Game_Goes-Single-WEB-2016-ENRAGED
2016-06-24 01:44:08 MP3 Johnny_Pepp-Fuer_Die_Familie-WEB-DE-2016-VOiCE
2016-06-24 01:46:17 TV-X264 The.Catch.US.S01E07.FRENCH.1080p.HDTV.x264-Ryotox
2016-06-24 01:49:27 TV-X264 The.Catch.US.S01E08.FRENCH.1080p.HDTV.x264-Ryotox
2016-06-24 01:52:11 XXX Cheer.Squad.Sleepovers.17.XXX.DVDRip.x264-UPPERCUT
2016-06-24 01:53:14 MP3 Blaq_Tuxedo-Pinkberry-Single-WEB-2014-ENRAGED
2016-06-24 01:53:27 MP3 Blaq_Tuxedo-Hands_Down-Single-WEB-2014-ENRAGED
2016-06-24 01:53:40 MP3 Blaq_Tuxedo-Cash_to_Blo-Single-WEB-2015-ENRAGED
2016-06-24 01:53:53 MP3 Blaq_Tuxedo-Limousine-WEB-2015-ENRAGED
2016-06-24 01:54:06 MP3 Blaq_Tuxedo-Lit-Single-WEB-2015-ENRAGED
2016-06-24 01:54:19 MP3 Blaq_Tuxedo-Red_Flowerz-EP-WEB-2015-ENRAGED
2016-06-24 01:54:32 MP3 Blaq_Tuxedo-Cool-Single-WEB-2016-ENRAGED
2016-06-24 01:59:23 FRTV Arvingerne.S01E07.FRENCH.HDTV.x264-AMB3R
2016-06-24 02:01:35 MP3 Jacob_Latimore-Superstar-Single-WEB-2007-ENRAGED
2016-06-24 02:01:46 MP3 Jacob_Latimore-Like_Em_All_(Radio_Version)-Single-WEB-2010-ENRAGED
2016-06-24 02:02:00 MP3 Jacob_Latimore-Like_Em_All-Single-WEB-2010-ENRAGED
2016-06-24 02:02:12 MP3 Jacob_Latimore-Nothing_On_Me-Single-WEB-2011-ENRAGED
2016-06-24 02:02:26 MP3 Jacob_Latimore-Remember_Me-Single-WEB-2016-ENRAGED
2016-06-24 02:02:38 MP3 Jacob_Latimore-Climb-Single-WEB-2016-ENRAGED
2016-06-24 02:09:52 MP3 Jay_Chou-Jay_Chous_Bedtime_Stories-WEB-CPOP-2016-TosK
2016-06-24 02:10:15 MP3 Andrea_Sfriso-Stay_with_Me-WEB-2016-JUSTiFY
2016-06-24 02:10:25 MP3 Andrea_Sfriso-You_Are_My_Strenght-WEB-2016-JUSTiFY
2016-06-24 02:10:33 MP3 Damon_Hess_feat_Imogen_Blue-Cant_Get_Up-WEB-2016-JUSTiFY
2016-06-24 02:10:39 MP3 Dan_Jander-Do_What_You_Want-WEB-2016-JUSTiFY
2016-06-24 02:10:45 MP3 Diozo_feat_Ivanildo_Kembel-Air-WEB-2016-JUSTiFY
2016-06-24 02:10:53 MP3 Eric_van_Basten-Higher-WEB-2016-JUSTiFY
2016-06-24 02:11:00 MP3 Idem-Runaway_(Smalltown_Boy)-WEB-2016-JUSTiFY
2016-06-24 02:11:07 MP3 SRNDR-All_Night-WEB-2016-JUSTiFY
2016-06-24 02:11:13 MP3 Thomas_Lemmer_feat_Tina_Sona-Lost-WEB-2016-JUSTiFY
2016-06-24 02:11:20 MP3 VA-Auf_Deutsch-WEB-DE-2016-JUSTiFY
2016-06-24 02:11:36 MP3 Hollow_Tip-Mercenary_Mobbmuzik-WEB-2016-ENRAGED
2016-06-24 02:12:06 MP3 Horseshoe_Gang-Poor_Swagg-Single-WEB-2016-ENRAGED
2016-06-24 02:19:33 MP3 Dallonte-Sirens_of_Nightfall-RUR055-WEB-2016-JUSTiFY
2016-06-24 02:23:21 XXX POVD.16.06.24.Peyton.Coast.Sex.Swing.Soiree.XXX.1080p.MP4-KTR
2016-06-24 02:28:20 XXX ElectroSluts.16.06.23.Mimosa.And.Daisy.Ducati.XXX.720p.MP4-KTR
2016-06-24 02:29:25 XXX-PAYSITE HardcoreGangbang.16.06.22.Maci.May.XXX.720p.MP4-KTR
2016-06-24 02:30:18 XXX HogTied.16.06.23.Kristina.Rose.XXX.720p.MP4-KTR
2016-06-24 02:32:29 XXX Lubed.16.06.24.Alexis.Adams.Jealous.Sister.Joi.XXX.1080p.MP4-KTR
2016-06-24 02:33:27 TV-X264 Teen.Mom.2.S07E12.HDTV.x264-CRiMSON
2016-06-24 02:36:48 XXX-0DAY Lubed.16.06.24.Alexis.Adams.Jealous.Sister.Joi.XXX.2160p.MP4-KTR
2016-06-24 02:40:46 MP3 L._Rucus-Stone_Cold-Single-WEB-2014-ENRAGED
2016-06-24 02:40:57 MP3 L._Rucus-Swerve-Single-WEB-2014-ENRAGED
2016-06-24 02:41:11 MP3 L._Rucus-Summer_Solstice-WEB-2015-ENRAGED
2016-06-24 02:46:13 ENGLISH-TV Teen.Mom.2.S07.Finale.Special.Check.Up.With.Dr.Drew.Part.1.HDTV.x264-CRiMSON
2016-06-24 02:58:20 TV-X264 Bones.S11E20.720p.HDTV.x264-AVS
2016-06-24 02:58:36 USTV Teen.Mom.2.S07.Finale.Special.Check.Up.With.Dr.Drew.Part.2.HDTV.x264-CRiMSON
2016-06-24 03:00:08 TV The.Mindy.Project.S04E24.720p.HDTV.x264-FLEET
2016-06-24 03:00:41 TV-X264 The.Mindy.Project.S04E24.HDTV.x264-FLEET
2016-06-24 03:01:33 TV Bones.S11E20.HDTV.x264-FLEET
2016-06-24 03:13:10 FRTV Arvingerne.S01E08.FRENCH.HDTV.x264-AMB3R
2016-06-24 03:18:56 MP3 J-Diggs-Habits_(feat_Aaron_King)-Single-WEB-2016-ENRAGED
2016-06-24 03:19:07 MP3 Jetpack_Jones-380SL-WEB-2014-ENRAGED
2016-06-24 03:19:20 MP3 Jessica_Lesaca-Property_(feat_Liane_V)-Single-WEB-2015-ENRAGED
2016-06-24 03:19:32 MP3 Jetpack_Jones-Afterburners_4_Retropect-WEB-2015-ENRAGED
2016-06-24 03:19:46 MP3 Jetpack_Jones-The_Pad-WEB-2016-ENRAGED
2016-06-24 03:19:59 MP3 Joe_Blow-You_Should_Be_Payin_Me_Too-WEB-2016-ENRAGED
2016-06-24 03:20:12 MP3 Liane_V-Sway_(feat_Bruce_Waynne)-Single-WEB-2014-ENRAGED
2016-06-24 03:20:25 MP3 Malachiae-Off_My_Mind-Single-WEB-2012-ENRAGED
2016-06-24 03:20:38 MP3 Malachiae-4_Reasons-Single-WEB-2013-ENRAGED
2016-06-24 03:20:51 MP3 Malachiae-Mack_(feat_Oshea)-Single-WEB-2014-ENRAGED
2016-06-24 03:21:06 MP3 Malachiae-This_Could_Be_Us-Single-WEB-2014-ENRAGED
2016-06-24 03:22:34 FR-ANIME-720P Kyoukai.No.Rinne.2.E11.SUBFRENCH.720p.HDTV.x264-AMB3R
2016-06-24 03:22:49 MP3 Jay_Fresh-The_Stay_Gold_Era-WEB-2016-ENRAGED
2016-06-24 03:23:57 XXX Defloration.16.06.23.Anna.Lukina.Hardcore.2.XXX.1440p.MP4-KTR
2016-06-24 03:24:02 TV Kyoukai.No.Rinne.2.E11.SUBFRENCH.HDTV.x264-AMB3R
2016-06-24 03:24:36 XXX-0DAY JamesDeen.TittyTuesday.Jay.Taylor.1233.XXX.1080p.MP4-KTR
2016-06-24 03:25:21 XXX JamesDeen.TittyTuesday.Karlee.Gray.1204.XXX.1080p.MP4-KTR
2016-06-24 03:26:16 XXX-0DAY JamesDeen.TittyTuesday.Katrina.Jade.1228.XXX.1080p.MP4-KTR
2016-06-24 03:26:51 XXX JamesDeen.TittyTuesday.Krissy.Lynn.1197.XXX.1080p.MP4-KTR
2016-06-24 03:27:35 XXX JamesDeen.TittyTuesday.Marilyn.Moore.1122.XXX.1080p.MP4-KTR
2016-06-24 03:28:19 XXX-PAYSITE JamesDeen.TittyTuesday.Mercedes.Carrera.1061.XXX.1080p.MP4-KTR
2016-06-24 03:28:53 XXX JamesDeen.TittyTuesday.Nina.Elle.1121.XXX.1080p.MP4-KTR
2016-06-24 03:29:45 XXX JamesDeen.TittyTuesday.Noelle.Easton.1153.XXX.1080p.MP4-KTR
2016-06-24 03:30:06 XXX Only-Secretaries.16.06.24.Alice.Brookes.XXX.1080p.MP4-KTR
2016-06-24 03:30:42 XXX Lesbian.Psychodramas.21.XXX.DVDRip.x264-UPPERCUT
2016-06-24 03:30:56 XXX PornMegaLoad.16.06.23.Amanda.Verhooks.Black.Cock.Ass.Slut.XXX.1080p.MP4-KTR
2016-06-24 03:31:32 XXX PornMegaLoad.16.06.23.Amiee.Roberts.Ample.Amiee.XXX.1080p.MP4-KTR
2016-06-24 03:32:19 XXX PornMegaLoad.16.06.23.Jordan.Jaimes.Fun-Loving.Slut.XXX.1080p.MP4-KTR
2016-06-24 03:33:01 XXX-0DAY PornMegaLoad.16.06.23.Juliana.Simms.The.Office.XXX.1080p.MP4-KTR
2016-06-24 03:36:05 MP3 Jay_n_Fresh-Back_That_Ass_Up_(feat_D-Lo_And_Sage_the_Gemini)-Single-WEB-2013-ENRAGED
2016-06-24 03:36:17 MP3 Jay_n_Fresh-Clap_It_Up_(feat_Sage_the_Gemini_And_Armani_Depaul)_Street_Version-Single-WEB-2013-ENRAGED
2016-06-24 03:36:29 MP3 Jay_n_Fresh-Cattin_Off--EP-WEB-2015-ENRAGED
2016-06-24 03:36:42 MP3 JAYnFRESH-She_Partyin_with_Us-Single-WEB-2015-ENRAGED
2016-06-24 03:41:36 X264 The.Science.of.Sleep.2006.PROPER.720p.BluRay.x264-HD4U
2016-06-24 03:41:48 X264 The.Science.of.Sleep.2006.PROPER.720p.BlRay.x264-HD4U
2016-06-24 03:44:48 MP3 Malcolm_and_Martin-Movement_Music-Single-WEB-2010-ENRAGED
2016-06-24 03:44:57 MP3 Mckenzie_Small-Caught_Feelings-Single-WEB-2016-ENRAGED
2016-06-24 03:45:10 MP3 Mozzy-Extracurricular_Activities-WEB-2016-ENRAGED
2016-06-24 03:47:21 X264 The.Science.of.Sleep.2006.1080p.BluRay.x264-HD4U
2016-06-24 03:54:27 TV Olive.Kitteridge.S01E04.FiNAL.FRENCH.1080p.HDTV.x264-Ryotox
2016-06-24 03:54:46 TV-HD-X264 Arvingerne.S01E08.FRENCH.1080p.HDTV.x264-Ryotox
2016-06-24 03:55:36 MP3 Nick_Grant-88-Single-WEB-2016-ENRAGED
2016-06-24 03:55:49 MP3 Nick_Grant-Contradiction-Single-WEB-2016-ENRAGED
2016-06-24 03:56:01 MP3 Nick_Grant-Trouble_Where_Is_the_Love_(Interlude)-Single-WEB-2016-ENRAGED
2016-06-24 04:04:23 MP3 O-Zone_the_Don-No_Handouts-WEB-2016-ENRAGED
2016-06-24 04:04:35 MP3 Parchesta_Young_Chesta-Parkway_Music_Vol_1-WEB-2016-ENRAGED
2016-06-24 04:14:46 BLURAY The.Science.of.Sleep.2006.COMPLETE.BLURAY-LAZERS
2016-06-24 04:17:02 MP3 Paris_Cimone-Fire_On_The_Floor-Single-WEB-2011-ENRAGED
2016-06-24 04:17:16 MP3 Paris_Cimone-Girlfriend-Single-WEB-2011-ENRAGED
2016-06-24 04:17:28 MP3 Paris_Cimone-Waterbed-Single-WEB-2013-ENRAGED
2016-06-24 04:17:42 MP3 Paris_Cimone-Lost_And_Found-Single-WEB-2014-ENRAGED
2016-06-24 04:17:53 MP3 Paris_Cimone-Ride_or_Die-WEB-2014-ENRAGED
2016-06-24 04:18:06 MP3 Paris_Cimone-Beautiful_Mess-EP-WEB-2015-ENRAGED
2016-06-24 04:24:30 MP3 Peanut-Wekickit-WEB-2016-ENRAGED
2016-06-24 04:24:43 MP3 People_Under_The_Stairs-The_Gettin_Off_Stage_Step_2-WEB-2016-ENRAGED
2016-06-24 04:30:50 TV-X264 Big.Brother.US.S18E02.720p.HDTV.x264-BAJSKORV
2016-06-24 04:33:15 MP3 VA-Colours_Collection__Vol_2__Green-Selection_Of_Dance_Music-WEB-2016-iHR
2016-06-24 04:33:16 MP3 Ras_Kass-Downward_Spiral_(feat_Freddie_Foxxx_And_Onyx)-Single-WEB-2016-ENRAGED
2016-06-24 04:33:28 MP3 Rico_Love-They_Dont_Know_(Remix)-Single-WEB-2014-ENRAGED
2016-06-24 04:33:41 MP3 RTG-Slay_(feat_Vivaswan)-Single-WEB-2016-ENRAGED
2016-06-24 04:34:05 MP3 VA-Deep_Detroit_Party-WEB-2016-iHR
2016-06-24 04:34:49 MP3 VA-Deep_Minimal_House_Sessions-WEB-2016-iHR
2016-06-24 04:35:22 MP3 VA-Disco_Tape__Vol_1_(Original_Versions)-WEB-2016-iHR
2016-06-24 04:35:59 MP3 VA-Discocktail__Vol_3-WEB-2016-iHR
2016-06-24 04:36:32 MP3 VA-DJ_Box_June_2016-WEB-2016-iHR
2016-06-24 04:37:00 MP3 VA-Eclypse_Vol_me_One-WEB-2016-iHR
2016-06-24 04:37:40 MP3 VA-Euro_EDM_Summer_2016-WEB-2016-iHR
2016-06-24 04:38:08 TV-X264-HD Big.Brother.UK.S17E18.720p.HDTV.x264-LiNKLE
2016-06-24 04:38:09 MP3 VA-Feeling_Shiny__Vol_2__Shiny_Selection_Of_House_Music-WEB-2016-iHR
2016-06-24 04:39:02 MP3 VA-Festival_Progressive_House_Summer_Selection-WEB-2016-iHR
2016-06-24 04:39:49 MP3 VA-Global_Sound_Ibiza_(20_Deep_Summer_Beats)__Vol_2-WEB-2016-iHR
2016-06-24 04:40:24 MP3 VA-House_Generation_FSTVL_Edition_2016-WEB-2016-iHR
2016-06-24 04:41:27 MP3 VA-Ibiza_Party_Squad__Vol_4_(25_Massive_House_Pills)-WEB-2016-iHR
2016-06-24 04:42:16 MP3 VA-Ibiza_Summer_House_Sessions__Vol_1-WEB-2016-iHR
2016-06-24 04:44:56 MP3 SG_Lewis-Shivers_(Honne_Remix)-Single-WEB-2015-ENRAGED
2016-06-24 04:45:08 MP3 SG_Lewis-Shivers_(Isaac_Tichauer_Remix)-Single-WEB-2015-ENRAGED
2016-06-24 04:45:21 MP3 SG_Lewis-Shivers-EP-WEB-2015-ENRAGED
2016-06-24 04:45:27 MP3 VA-Lady_Deep__Vol_3_(Deep_House_Selecion)-WEB-2016-iHR
2016-06-24 04:45:34 MP3 SG_Lewis-Warm-Single-WEB-2015-ENRAGED
2016-06-24 04:45:46 MP3 SG_Lewis-All_Night-Single-WEB-2016-ENRAGED
2016-06-24 04:45:52 MP3 VA-Lady_Deep__Vol_4_(Deep_House_Selecion)-WEB-2016-iHR
2016-06-24 04:46:00 MP3 SG_Lewis-Holding_Back-Single-WEB-2016-ENRAGED
2016-06-24 04:46:12 MP3 SG_Lewis-Yours-Single-WEB-2016-ENRAGED
2016-06-24 04:46:23 MP3 VA-Lady_Deep__Vol_5_(Deep_House_Selecion)-WEB-2016-iHR
2016-06-24 04:46:26 MP3 Smoke_Locc-Gangsta_and_a_Gentleman-WEB-2016-ENRAGED
2016-06-24 04:46:36 MP3 Stresmatic-Matic-WEB-2016-ENRAGED
2016-06-24 04:47:02 MP3 VA-Lady_Deep__Vol_6_(Deep_House_Selecion)-WEB-2016-iHR
2016-06-24 04:47:23 MP3 VA-Life_Is_Better_When_You_Dance-WEB-2016-iHR
2016-06-24 04:48:08 MP3 VA-Music_Works_Presents_Chatty_Chatty_Mouth_Versions-WEB-2003-iHR
2016-06-24 04:48:51 MP3 VA-Off_The_Radar__Vol_2-WEB-2016-iHR
2016-06-24 04:49:32 MP3 VA-Organic_Tech-House__Vol_9-WEB-2016-iHR
2016-06-24 04:49:54 MP3 VA-Organic_Underground_Issue_17-WEB-2016-iHR
2016-06-24 04:53:19 MP3 VA-Progressive_Future_House__Vol_2_(Ultra_Sound)-WEB-2016-iHR
2016-06-24 04:53:43 MP3 VA-Progressive_Stories__Vol_11-WEB-2016-iHR
2016-06-24 04:54:14 MP3 VA-Sensation_Deep__Vol_6_(Groovy_Deep_House_Tunes)-WEB-2016-iHR
2016-06-24 04:54:53 MP3 VA-SONAR_SAMPLER_2016-WEB-2016-iHR
2016-06-24 04:55:22 MP3 VA-Space_Trance__Vol_2-WEB-2016-iHR
2016-06-24 04:55:50 MP3 VA-Summer_In_The_City__Tech_House_Selection-WEB-2016-iHR
2016-06-24 04:56:30 MP3 VA-Sunshine_Reggae__Vol_1-WEB-2016-iHR
2016-06-24 04:57:19 MP3 VA-The_Mallorca_Sunset_Lounge-WEB-2016-iHR
2016-06-24 04:57:54 MP3 VA-The_Sweet_Lounge__Vol_7_Lounge_In_Naples-WEB-2016-iHR
2016-06-24 04:58:29 MP3 VA-Tones_Of_Budapest-WEB-2016-iHR
2016-06-24 04:59:01 TV-X264 Aquarius.US.S02E04.720p.HDTV.x264-AVS
2016-06-24 04:59:07 MP3 VA-Vamos_A_La_Playa__Vol_2_(20_Deep_Little_Beach_Queens)-WEB-2016-iHR
2016-06-24 04:59:52 MP3 VA-Welcome_To_Croatia__Vol_1_(Deep_House_Essentials_2016)-WEB-2016-iHR
2016-06-24 05:00:05 TV Aquarius.US.S02E04.HDTV.x264-FLEET
2016-06-24 05:00:14 TVHD Queen.of.the.South.S01E01.720p.HDTV.x264-FLEET
2016-06-24 05:00:42 MP3 VA-Winter_Turns_Into_Spring__Vol_1__Selection_Of_Deep_House-WEB-2016-iHR
2016-06-24 05:00:44 TV Private.Eyes.S01E05.720p.HDTV.x264-FLEET
2016-06-24 05:01:04 TV Queen.of.the.South.S01E01.HDTV.x264-FLEET
2016-06-24 05:01:07 XXX Assylum.16.04.20.Charlotte.Sartre.Wreck.My.Trash.Ass.XXX.1080p.MP4-KTR
2016-06-24 05:01:32 MP3 VA-Worms_Records_Fifty-WEB-2016-iHR
2016-06-24 05:01:56 TV Private.Eyes.S01E05.HDTV.x264-FLEET
2016-06-24 05:02:09 MP3 VA-Worms_Records_Fif
2016-06-24 05:02:12 XXX-0DAY Assylum.16.04.28.Audrey.Holiday.Fuck.My.Sweet.Ass.Senseless.XXX.1080p.MP4-KTR
2016-06-24 05:03:53 XXX Assylum.16.05.04.Delirious.Hunter.And.Nurse.Holl.Adopted.For.Anal.XXX.1080p.MP4-KTR
2016-06-24 05:04:24 XXX FirstAnalDate.16.06.23.Doris.XXX.1080p.MP4-KTR
2016-06-24 05:05:13 XXX IKissGirls.16.06.23.Tess.Lyndon.And.Whitney.Conroy.Monday.Romp.XXX.1080p.MP4-KTR
2016-06-24 05:05:56 XXX PrivateCasting-X.16.06.22.Liza.XXX.1080p.MP4-KTR
2016-06-24 05:09:43 BLURAY My.Wifes.a.Superstar.2016.COMPLETE.BLURAY-LAZERS
2016-06-24 05:13:15 TV Private.Eyes.S01E05.INTERNAL.720p.HDTV.x264-KILLERS
2016-06-24 05:31:35 TV Aquarius.US.S02E04.PROPER.720p.HDTV.x264-FLEET
2016-06-24 05:34:42 TV Queen.of.the.South.S01E01.INTERNAL.720p.HDTV.x264-KILLERS
2016-06-24 05:36:42 TV Die.Welt.der.Haie.S01E01.Meister.der.Jagd.German.DL.DOKU.1080p.BluRay.x264-TV4A
2016-06-24 05:38:59 TV Die.Welt.der.Haie.S01E01.Meister.der.Jagd.German.DL.DOKU.720p.BluRay.x264-TV4A
2016-06-24 05:40:22 TV-DVDRIP Die.Welt.der.Haie.S01E01.Meister.der.Jagd.German.DOKU.WS.BDRiP.x264-TV4A
2016-06-24 05:46:09 FRDOCU Envoye.Special.2016.06.23.DOC.FRENCH.720p.HDTV.x264-SH0W
2016-06-24 05:47:06 FRDOCU Envoye.Special.2016.06.23.DOC.FRENCH.HDTV.x264-SH0W
2016-06-24 05:48:06 HD720FR Complement.D.Enquete.Harcelement.Sexuel.Le.Scandale.Baupin.DOC.FRENCH.720p.HDTV.x264-SH0W
2016-06-24 05:49:09 DIVXFR Complement.D.Enquete.Harcelement.Sexuel.Le.Scandale.Baupin.DOC.FRENCH.HDTV.x264-SH0W
2016-06-24 05:50:09 TV-X264 L.Emission.D.Antoine.2016.06.23.FRENCH.720p.HDTV.x264-SH0W
2016-06-24 05:51:08 TVX264FR L.Emission.D.Antoine.2016.06.23.FRENCH.HDTV.x264-SH0W
2016-06-24 05:55:03 X264 Dheepan.Daemonen.und.Wunder.2015.GERMAN.1080p.BluRay.x264-MOViEiT
2016-06-24 06:04:04 MP3 Adventure.Time.S07E36.The.Music.Hole.720p.HDTV.x264-W4F
2016-06-24 06:04:12 MP3 Adventure.Time.S07E36.The.Music.Hole.HDTV.x264-W4F
2016-06-24 06:04:28 TV-X264 Clarence.US.S02E26.Bucky.and.the.Howl.720p.HDTV.x264-W4F
2016-06-24 06:04:34 TV-X264 Clarence.US.S02E26.Bucky.and.the.Howl.HDTV.x264-W4F
2016-06-24 06:05:07 MP3 Caribbean_Dandee-Live_A_Lolympia_Bruno_Coquatrix-FR-DVBS-2016-OND
2016-06-24 06:05:36 TV Counterfeit.Cat.S01E04.720p.HDTV.x264-W4F
2016-06-24 06:05:45 XXX LethalHardcore.Couples.Corrupt.Teens.XXX.720p.MP4-KTR
2016-06-24 06:06:02 TV Counterfeit.Cat.S01E04.HDTV.x264-W4F
2016-06-24 06:06:08 TV Grizzly.Uprising.2016.720p.HDTV.x264-W4F
2016-06-24 06:06:16 TV Grizzly.Uprising.2016.HDTV.x264-W4F
2016-06-24 06:06:29 TV Harvey.Beaks.S02E05.720p.HDTV.x264-W4F
2016-06-24 06:06:37 TV Harvey.Beaks.S02E05.HDTV.x264-W4F
2016-06-24 06:06:45 TV Lego.Star.Wars.The.Freemaker.Adventures.S01E04.720p.HDTV.x264-W4F
2016-06-24 06:06:54 TV Lego.Star.Wars.The.Freemaker.Adventures.S01E04.HDTV.x264-W4F
2016-06-24 06:07:05 TV MasterChef.US.S07E04.A.MasterChef.Wedding.720p.HDTV.x264-W4F
2016-06-24 06:07:42 XXX LethalHardcore.Couples.Corrupt.Teens.XXX.1080p.MP4-KTR
2016-06-24 06:07:54 TV NinjaGo.Masters.of.Spinjitzu.S06E03.CONVERT.720p.HDTV.x264-W4F
2016-06-24 06:08:35 TV NinjaGo.Masters.of.Spinjitzu.S06E03.CONVERT.HDTV.x264-W4F
2016-06-24 06:08:38 XXXPAY DigitalPlayground.16.06.24.Ana.Foxxx.Fit.To.Be.Tied.XXX.1080p.MP4-KTR
2016-06-24 06:08:51 TV Odd.Squad.S02E03.720p.HDTV.x264-W4F
2016-06-24 06:09:07 TV-XVID Odd.Squad.S02E03.HDTV.x264-W4F
2016-06-24 06:09:17 TV Regular.Show.S07E36.Deez.Keys.720p.HDTV.x264-W4F
2016-06-24 06:09:27 TV Regular.Show.S07E36.Deez.Keys.HDTV.x264-W4F
2016-06-24 06:09:30 TV Sanjay.and.Craig.S03E12.720p.HDTV.x264-W4F
2016-06-24 06:09:56 TV Sanjay.and.Craig.S03E12.HDTV.x264-W4F
2016-06-24 06:10:10 TV Spartan.Ultimate.Team.Challenge.S01E03.HDTV.x264-W4F
2016-06-24 06:10:17 MVID Caribbean_Dandee-Live_A_Lolympia_Bruno_Coquatrix_(2016-04-18)-FR-x264-2016-iUF
2016-06-24 06:10:20 XXX-PAYSITE PublicPickUps.16.06.24.Shona.River.Curly-Haired.Euro.Babe.Begs.For.It.XXX.1080p.MP4-KTR
2016-06-24 06:11:04 TV Teen.Titans.Go.S03E39.Think.About.Your.Future.720p.HDTV.x264-W4F
2016-06-24 06:11:19 TV Teen.Titans.Go.S03E39.Think.About.Your.Future.HDTV.x264-W4F
2016-06-24 06:11:50 XXXPAY 21Naturals.16.06.24.Nikki.Waine.Nikki.And.Kai.Rumble.XXX.1080p.MP4-KTR
2016-06-24 06:12:48 XXX-0DAY DarkX.16.06.24.Stella.Cox.Big.Boob.IR.Anal.XXX.1080p.MP4-KTR
2016-06-24 06:13:14 TV The.Amazing.World.of.Gumball.S04E32.The.Misunderstanding.720p.HDTV.x264-W4F
2016-06-24 06:13:24 TV-X264-SD The.Amazing.World.of.Gumball.S04E32.The.Misunderstanding.HDTV.x264-W4F
2016-06-24 06:13:38 TV The.Nightly.Show.2016.06.22.M1.720p.HDTV.x264-W4F
2016-06-24 06:13:45 TV The.Nightly.Show.2016.06.22.M1.HDTV.x264-W4F
2016-06-24 06:13:48 XXX-0DAY EroticaX.16.06.24.Scarlet.Red.And.Ana.Foxxx.Bound.Excitement.XXX.1080p.MP4-KTR
2016-06-24 06:14:01 TV The.Powerpuff.Girls.2016.S01E21.720p.HDTV.x264-W4F
2016-06-24 06:14:11 TV The.Powerpuff.Girls.2016.S01E21.HDTV.x264-W4F
2016-06-24 06:14:28 TV Bert.the.Conqueror.S03E01.DIRFIX.720p.HDTV.x264-W4F
2016-06-24 06:14:33 TV Bert.the.Conqueror.S03E01.DIRFIX.HDTV.x264-W4F
2016-06-24 06:14:38 TV Bert.the.Conqueror.S03E02.DIRFIX.720p.HDTV.x264-W4F
2016-06-24 06:14:42 TV Bert.the.Conqueror.S03E02.DIRFIX.HDTV.x264-W4F
2016-06-24 06:14:45 XXX HardX.16.06.24.Abella.Danger.Anal.Desire.XXX.1080p.MP4-KTR
2016-06-24 06:15:35 TV Nazi.Mega.Weapons.S03E02.Hitlers.Killer.Subs.EXTENDED.HDTV.x264-W4F
2016-06-24 06:15:35 XXXHD NuruMassage.16.06.24.Bibi.Noel.Lil.Bro.Birthday.Surprise.XXX.1080p.MP4-KTR
2016-06-24 06:16:28 XXXHD PrettyDirty.16.06.24.Jessa.Rhodes.A.Wife.For.A.Wife.Part.Two.XXX.1080p.MP4-KTR
2016-06-24 06:16:58 XXX-0DAY Throated.16.06.24.Amara.Romani.XXX.1080p.MP4-KTR
2016-06-24 06:17:49 XXX WebYoung.16.06.24.Kimmy.Granger.And.Alice.March.I.Caught.My.Sister.Part.One.XXX.1080p.MP4-KTR
2016-06-24 06:18:34 TV-X264 Private.Eyes.S01E05.1080p.HDTV.x264-BRISK
2016-06-24 06:20:07 XXX-0DAY HotAndMean.16.06.24.Jayme.Langford.And.Jenna.Ashley.Get.Your.O.And.Go.XXX.1080p.MP4-KTR
2016-06-24 06:21:30 XXX TeensLikeItBig.16.06.24.Nekane.Sweet.Nekanes.Sweet.Pussy.XXX.1080p.MP4-KTR
2016-06-24 06:27:53 TV-X264 Lip.Sync.Battle.S02E21.720p.HDTV.x264-ALTEREGO
2016-06-24 06:31:09 XXX 18OnlyGirls.16.06.24.Anny.Aurora.A.Fine.Line.XXX.1080p.MP4-KTR
2016-06-24 06:31:22 TV BattleBots.2015.S02E01.HDTV.x264-CROOKS
2016-06-24 06:32:48 XXX-0DAY 18OnlyGirls.16.06.24.Anny.Aurora.A.Fine.Line.XXX.2160p.MP4-KTR
2016-06-24 06:33:23 TV-HD-X264 The.Bachelorette.S12E05.720p.WEB.x264-ALTEREGO
2016-06-24 06:33:52 XXX-0DAY 1By-Day.16.06.24.Monique.Woods.XXX.1080p.MP4-KTR
2016-06-24 06:34:30 XXXPAY 8thStreetLatinas.16.06.24.Victoria.Valencia.Dick.On.The.Cob.XXX.1080p.MP4-KTR
2016-06-24 06:35:21 XXX-0DAY HotLegsAndFeet.16.06.24.Frida.Sante.XXX.1080p.MP4-KTR
2016-06-24 06:36:24 XXX JimSlip.16.06.24.Arteya.Gagging.In.Gingham.XXX.1080p.MP4-KTR
2016-06-24 06:37:28 XXX LarasPlayground.16.06.24.Dominica.Like.A.Phoenix.From.The.Flames.XXX.1080p.MP4-KTR
2016-06-24 06:38:01 EBOOK La.Gazzetta.Dello.Sport.06.24.2016.iTALiAN.RETAiL.eBook-DiVER
2016-06-24 06:38:31 XXX RoundAndBrown.16.06.24.Yara.Skye.Yummy.Yara.XXX.1080p.MP4-KTR
2016-06-24 06:39:36 X264 I.Saw.the.Light.2015.FRENCH.720p.BluRay.x264-VENUE
2016-06-24 06:40:20 TVHD Americas.Got.Talent.S11E04.720p.HDTV.x264-ALTEREGO
2016-06-24 06:41:10 TV Spartan.Ultimate.Team.Challenge.S01E03.720p.HDTV.x264-W4F
2016-06-24 06:42:06 XXX-0DAY AmateurAllure.16.06.24.Alexa.Grace.XXX.1080p.MP4-KTR
2016-06-24 06:42:19 TV-SD-X264 Lip.Sync.Battle.S02E21.HDTV.x264-ALTEREGO
2016-06-24 06:43:43 XXX-0DAY SapphicErotica.16.06.24.Alessandra.Jane.And.Aria.Logan.XXX.1080p.MP4-KTR
2016-06-24 06:44:29 XXX-0DAY VintageFlash.16.06.24.Samantha.Bentley.Always.Willing.XXX.2160p.MP4-KTR
2016-06-24 06:45:34 X264 I.Saw.the.Light.2015.FRENCH.BDRip.x264-VENUE
2016-06-24 06:48:19 X264 I.Saw.the.Light.2015.MULTi.1080p.BluRay.x264-VENUE
2016-06-24 06:57:00 EBOOK Il.Corriere.Della.Sera.06.24.2016.iTALiAN.RETAiL.eBook-DiVER
2016-06-24 07:00:53 XXX ImmoralLive.16.06.24.Priya.Price.XXX.1080p.MP4-KTR
2016-06-24 07:02:22 XXX-0DAY KellyMadison.16.06.24.Haley.Cummings.We.Got.Her.Pregnant.XXX.INTERNAL.1080p.MP4-KTR
2016-06-24 07:03:43 BLURAY Dheepan.Daemonen.und.Wunder.2015.DUAL.COMPLETE.BLURAY-MOViEiT
2016-06-24 07:07:07 XXX-0DAY ATKHairy.16.06.24.Ellie.Interview.XXX.1080p.MP4-KTR
2016-06-24 07:07:46 XXX ATKHairy.16.06.24.Riley.Reyes.Masturbation.XXX.1080p.MP4-KTR
2016-06-24 07:08:18 XXX AuntJudys.16.06.24.Mona.Wales.Masturbation.XXX.1080p.MP4-KTR
2016-06-24 07:09:36 XXX PlumperPass.16.06.24.Lexxxi.Luxe.Big.Dreams.XXX.1080p.MP4-KTR
2016-06-24 07:12:08 XXX Joymii.16.06.24.Kiara.L.Daydream.XXX.1080p.MP4-KTR
2016-06-24 07:20:31 XXX-PAYSITE ATKGirlfriends.16.06.24.Brittany.Shae.XXX.1080p.MP4-KTR
2016-06-24 07:21:44 XXX ATKGirlfriends.16.06.24.Brittany.Shae.XXX.2160p.MP4-KTR
2016-06-24 07:30:19 TV-X264 Americas.Got.Talent.S11E04.HDTV.x264-ALTEREGO
2016-06-24 07:30:40 XXX FTVGirls.16.06.24.Nicky.Adventurous.Start.XXX.1080p.MP4-KTR
2016-06-24 07:32:38 XXX FTVGirls.16.06.24.Nicky.Sexy.Ways.XXX.1080p.MP4-KTR
2016-06-24 07:33:25 TV-X264 Alone.S02E09.The.Madness.720p.HDTV.x264-DHD
2016-06-24 07:33:34 XXX-0DAY PlayboyPlus.16.06.24.Angel.B.And.Pamela.Perfect.Stroke.XXX.1080p.MP4-KTR
2016-06-24 07:51:03 TV Life.Below.Zero.S07E14.No.Shortcuts.720p.HDTV.x264-DHD
2016-06-24 07:54:35 TV-X264 Lone.Star.Law.S01E04.720p.HDTV.x264-W4F
2016-06-24 07:57:01 TV Lone.Star.Law.S01E04.HDTV.x264-W4F
2016-06-24 08:03:30 UNKNOWN 60.Millions.de.consommateurs.N517.FRENCH.RETAIL.eBook-PRESSECiTRON
2016-06-24 08:04:25 SERIES-HD Queen.of.the.South.S01E01.1080p.HDTV.x264-BRISK
2016-06-24 08:04:30 EBOOK ELLE.N3679.FRENCH.RETAIL.eBook-PRESSECiTRON
2016-06-24 08:05:29 UNKNOWN L.Equipe.24.Juin.2016.FRENCH.RETAIL.eBook-PRESSECiTRON
2016-06-24 08:06:30 EBOOK La.Libre.Belgique.24.Juin.2016.FRENCH.RETAIL.eBook-PRESSECiTRON
2016-06-24 12:32:34 BLURAY Vigilante.Diaries.2016.COMPLETE.BLURAY-LAZERS
2016-06-24 12:41:06 0DAY Nextlimit.Realflow.Cinema.4D.v1.0.0-AMPED
2016-06-24 12:41:16 PRE Nextlimit.Realflow.Cinema.4D.v1.0.0.MACOSX-AMPED
2016-06-24 12:49:10 MP3 Abidaz-Respektera_Hungern-WEB-SE-2016-GCP
2016-06-24 12:49:58 MP3 Dyprax_Ft._MC_Tha_Watcher_-_Music_In_My_Head_(Free_Festival_Anthem_2016)-(MOHDIGI149)-WEB-2016-HB
2016-06-24 12:50:42 MP3 Copout--Forces_EP-WEB-2016-WUS
2016-06-24 12:53:02 MP3 R.Lum.R-Show_Me-Single-WEB-2015-ENRAGED
2016-06-24 12:53:13 MP3 R.Lum.R-Be_Honest-Single-WEB-2015-ENRAGED
2016-06-24 12:53:21 TV-X264-SP 2.Chicas.Sin.Blanca.S05E20.SPANiSH.720p.WEBRip.x264-sPHD
2016-06-24 12:53:25 MP3 R.Lum.R-Frustrated-Single-WEB-2016-ENRAGED
2016-06-24 12:53:38 MP3 R.Lum.R-Nothing_New-Single-WEB-2016-ENRAGED
2016-06-24 12:53:42 TV-SD-SP 2.Chicas.Sin.Blanca.S05E20.SPANiSH.WEBRip.x264-FCC
2016-06-24 12:53:50 MP3 R.Lum.R-Tell_Me-Single-WEB-2016-ENRAGED
2016-06-24 12:54:08 TV-X264 Aquarius.US.S01E08.SPANiSH.720p.HDTV.x264-sPHD
2016-06-24 12:54:28 TV-X264 Aquarius.US.S01E08.SPANiSH.HDTV.x264-FCC
2016-06-24 12:54:44 TV Dos.Dias.Y.Una.Noche.S01E12.Mariano.Rajoy.SPANiSH.720p.HDTV.x264-sPHD
2016-06-24 12:55:09 TVSD Dos.Dias.Y.Una.Noche.S01E12.Mariano.Rajoy.SPANiSH.HDTV.x264-FCC
2016-06-24 12:55:25 SPTVHD Hijos.De.La.Anarquia.S07E04.SPANiSH.1080p.WEBRip.x264-sPHD
2016-06-24 12:56:05 TV Hijos.De.La.Anarquia.S07E04.SPANiSH.720p.WEBRip.x264-sPHD
2016-06-24 12:56:26 MP3 VA--Urban_Creations_Issue_1-WEB-2016-WUS
2016-06-24 12:56:39 TV-XVID Hijos.De.La.Anarquia.S07E04.SPANiSH.WEBRip.x264-FCC
2016-06-24 12:56:58 TV-X264 Hijos.De.La.Anarquia.S07E05.SPANiSH.1080p.WEBRip.x264-sPHD
2016-06-24 12:57:31 SPTVHD Hijos.De.La.Anarquia.S07E05.SPANiSH.720p.WEBRip.x264-sPHD
2016-06-24 12:58:09 TV-SD-SP Hijos.De.La.Anarquia.S07E05.SPANiSH.WEBRip.x264-FCC
2016-06-24 12:58:26 TV-X264-SP Merli.S01E11.SPANiSH.720p.WEBRip.x264-sPHD
2016-06-24 12:59:00 TV Merli.S01E11.SPANiSH.WEBRip.x264-FCC
2016-06-24 12:59:09 MP3 VA--Recurrent_Music_Issue_2-WEB-2016-WUS
2016-06-24 13:00:24 MP3 Suokas--The_New_Cycle-WEB-2016-WUS
2016-06-24 13:01:10 MP3 Jimmy_Edgar--Dreamz_Come_True-WEB-2016-WUS
2016-06-24 13:01:51 TV Le.Petit.Journal.2016.06.23.PJ.Exit.FiNAL.FRENCH.720p.HDTV.x264-SRiZ
2016-06-24 13:05:45 MP3 Bordo--Sunset_On_My_Mind-WEB-2016-WUS
2016-06-24 13:06:45 MP3 Albert_Ballart_And_Oscar_Gs--See_You-WEB-2016-WUS
2016-06-24 13:07:08 MP3 Cherryade--Fractured_Fairytales-WEB-2016-WUS
2016-06-24 13:07:34 MP3 Clyde_Zeibs--Indian_Chant-WEB-2016-WUS
2016-06-24 13:08:10 MP3 Ivan_Cherchel--Memories-WEB-2016-WUS
2016-06-24 13:09:03 MP3 Carlos_Francisco--Night_Time-WEB-2016-WUS
2016-06-24 13:09:54 MP3 Hiyarant--One_Moment_Of_Clarity_EP-WEB-2016-WUS
2016-06-24 13:10:35 MP3 Crookers--Beautiful_Dub_Side_3-WEB-2016-WUS
2016-06-24 13:11:14 MP3 Atlantis_Ocean--Megatron_Ep-WEB-2016-WUS
2016-06-24 13:11:59 MP3 Greg_Nairo--Native_EP-WEB-2016-WUS
2016-06-24 13:12:10 TV-X264 MasterChef.Australia.S08E40.HDTV.x264-FQM
2016-06-24 13:12:18 TVHD MasterChef.Australia.S08E40.720p.HDTV.x264-ORENJI
2016-06-24 13:12:32 MP3 Heyder--Whirlpool-WEB-2016-WUS
2016-06-24 13:12:58 MP3 Aj_Batutta--Such_A_Good_Feeling-WEB-2016-WUS
2016-06-24 13:13:49 MP3 Darling--JacobS_Lead-WEB-2016-WUS
2016-06-24 13:18:03 XXX-IMAGESET Met-Art.com_16.06.24.Victory.Comara.XXX.IMAGESET-FuGLi
2016-06-24 13:19:46 XXX-IMAGESET Met-Art.com_16.06.24.Tammi.Lee.Presenting.Tammi.Lee.XXX.IMAGESET-FuGLi
2016-06-24 13:20:27 MP3 Dj_Ariep--Jellify-WEB-2016-WUS
2016-06-24 13:20:33 TV-X264 Le.Petit.Journal.2016.06.23.PJ.Exit.FiNAL.FRENCH.HDTV.x264-SRiZ
2016-06-24 13:20:49 MP3 Depr--Lets_Get_Down-WEB-2016-WUS
2016-06-24 13:21:35 MP3 Anome--Inner_War-WEB-2016-WUS
2016-06-24 13:22:15 APPS Video2Brain.Profitabel.netzwerken.GERMAN-EMERGE
2016-06-24 13:22:17 MP3 Grate_Lakes--Hovervapes_13-WEB-2016-WUS
2016-06-24 13:22:36 XXX Met-Art.com_16.06.24.Debora.A.Terandi.XXX.IMAGESET-FuGLi
2016-06-24 13:23:20 MP3 Boicat--Hood_Classics_Vol_3-WEB-2016-WUS
2016-06-24 13:23:49 MP3 Jim_Kashel--Boomshakalaka-WEB-2016-WUS
2016-06-24 13:24:15 XXX-IMAGESET Met-Art.com_16.06.24.Nika.N.Asuica.XXX.IMAGESET-FuGLi
2016-06-24 13:24:28 MP3 Koji_Miyatake--Rainy_Season-WEB-2016-WUS
2016-06-24 13:24:56 XXX-IMAGESET TheLifeErotic.com_16.06.24.Delphine.Tracy.Lindsay.The.Beast.Within.1.XXX.IMAGESET-FuGLi
2016-06-24 13:24:57 MP3 Crazey_And_Loccoo--Project_X-WEB-2016-WUS
2016-06-24 13:26:27 MP3 Kristine_W--Out_There-WEB-2016-WUS
2016-06-24 13:26:51 IMAGESET Errotica-Archives.com_16.06.24.Anna.Violete.Palote.XXX.IMAGESET-FuGLi
2016-06-24 13:26:55 MP3 Fearious_Black--Pacific_Dreams-WEB-2016-WUS
2016-06-24 13:27:25 MP3 Inhuma--Eternity-WEB-2016-WUS
2016-06-24 13:27:56 MP3 In_Extremo-Quid_Pro_Quo-WEB-DE-2016-I_KnoW_INT
2016-06-24 13:28:09 MP3 Astralasia--Cheesy_EP-WEB-2016-WUS
2016-06-24 13:28:17 TV-X264 Safeword.S02E04.720p.HDTV.x264-C4TV
2016-06-24 13:28:39 XXX EroticBeauty.com_16.06.24.Vikka.A.Presenting.Vikka.A.XXX.IMAGESET-FuGLi
2016-06-24 13:29:03 TV Safeword.S02E04.HDTV.x264-C4TV
2016-06-24 13:30:00 XXX-IMAGESET Rylskyart.com_16.06.24.Sybil.Bretruh.XXX.IMAGESET-FuGLi
2016-06-24 13:30:27 TV Murder.in.Successville.S02E02.720p.WEB.h264-C4TV
2016-06-24 13:31:45 TV Teen.Mom.2.S07.Finale.Special.Check.Up.With.Dr.Drew.Part.1.720p.WEB.x264-C4TV
2016-06-24 13:33:16 X264 Teen.Mom.2.S07.Finale.Special.Check.Up.With.Dr.Drew.Part.2.720p.WEB.x264-C4TV
2016-06-24 13:33:32 MP3 Makam--Than_Sadet_Sampler_EP-WEB-2016-WUS
2016-06-24 13:33:34 XXX-IMGSET ATKPremium.com_16.06.24.Elena.Koshka.XXX.IMAGESET-FuGLi
2016-06-24 13:34:12 MP3 Falkan--One_Life_EP-WEB-2016-WUS
2016-06-24 13:34:56 APPS MICROSOFT_10982A_PART_2_VIRTUAL_MACHINES_SUPPORTING_AND_TROUBLESHOOTING_WINDOWS_10_BASES_TUTORIAL-kEISO
2016-06-24 13:35:16 TV-X264 EU.Referendum.The.Great.Debate.LIVE.2016.720p.HDTV.x264-C4TV
2016-06-24 13:35:20 IMAGESET AmKingdom.com_16.06.24.Coeds.In.Uniforms.Autmn.Gram.Set.2.XXX.IMAGESET-FuGLi
2016-06-24 13:35:41 MP3 Bobina_And_Kyle_Richardson-Love_Is_The_Answer_(Remixes)-(MM1203-0)-WEB-2016-UKHx
2016-06-24 13:36:27 XXX-IMAGESET AmKingdom.com_16.06.24.Coeds.In.Uniforms.Autumn.Gram.Set.1.XXX.IMAGESET-FuGLi
2016-06-24 13:36:47 TV-X264 EU.Referendum.The.Great.Debate.LIVE.2016.HDTV.x264-C4TV
2016-06-24 13:37:02 EBOOK Le.Monde.25.Juin.2016.French.Retail.eBook-FMR
2016-06-24 13:37:07 EBOOK Le.Monde.Eco.et.Entreprise.25.Juin.2016.French.Retail.eBook-FMR
2016-06-24 13:37:12 EBOOK Le.Monde.Idees.25.Juin.2016.French.Retail.eBook-FMR
2016-06-24 13:37:17 EBOOK Le.Monde.M.25.Juin.2016.French.Retail.eBook-FMR
2016-06-24 13:37:22 EBOOK Le.Monde.Sport.et.Forme.25.Juin.2016.French.Retail.eBook-FMR
2016-06-24 13:37:51 XXX AmKingdom.com_16.06.24.Coeds.In.Uniforms.Chloe.Couture.Set.1.XXX.IMAGESET-FuGLi
2016-06-24 13:37:57 TV Question.Time.EU.Special.The.Case.For.Remain.2016.720p.HDTV.x264-C4TV
2016-06-24 13:38:28 TVHD Second.Chance.2016.S01E04.NLSUBBED.1080p.HDTV.x264-iFH
2016-06-24 13:38:59 TV Question.Time.EU.Special.The.Case.For.Remain.2016.HDTV.x264-C4TV
2016-06-24 13:39:32 XXX AmKingdom.com_16.06.24.Coeds.In.Uniforms.Chloe.Couture.Set.2.XXX.IMAGESET-FuGLi
2016-06-24 13:40:37 TV-HD-X264 Europe.The.Final.Debate.With.Jeremy.Paxman.2016.720p.HDTV.x264-C4TV
2016-06-24 13:41:12 XXX-IMAGESET AmKingdom.com_16.06.24.Coeds.In.Uniforms.Jasmine.Summers.XXX.IMAGESET-FuGLi
2016-06-24 13:41:38 TV-X264 Big.Brother.UK.S17E18.HDTV.x264-C4TV
2016-06-24 13:42:12 XXX-IMAGESET AmKingdom.com_16.06.24.Coeds.In.Uniforms.Scarlett.Fever.XXX.IMAGESET-FuGLi
2016-06-24 13:43:04 XXX Domai.com_16.06.24.Mixaella.Set.1.XXX.IMAGESET-GAGBALL
2016-06-24 13:44:04 XXX EternalDesire.com_16.06.24.Keela.C.Play.XXX.IMAGESET-GAGBALL
2016-06-24 13:44:10 TV-X264 Europe.The.Final.Debate.With.Jeremy.Paxman.2016.HDTV.x264-C4TV
2016-06-24 13:44:17 TV-X264 The.Hotel.Inspector.S12E04.720p.HDTV.x264-C4TV
2016-06-24 13:44:26 XXX AmKingdom.com_16.06.24.Coeds.In.Uniforms.Val.Dodds.Set.1.XXX.IMAGESET-FuGLi
2016-06-24 13:45:15 TV The.Hotel.Inspector.S12E04.HDTV.x264-C4TV
2016-06-24 13:46:12 TV Mock.the.Week.S15E02.720p.HDTV.x264-C4TV
2016-06-24 13:46:29 XXX-IMGSET GoddessNudes.com_16.06.24.Olivia.Set.1.XXX.IMAGESET-GAGBALL
2016-06-24 13:46:30 XXX-IMGSET AmKingdom.com_16.06.24.Coeds.In.Uniforms.Val.Dodds.Set.2.XXX.IMAGESET-FuGLi
2016-06-24 13:46:52 TV Mock.the.Week.S15E02.HDTV.x264-C4TV
2016-06-24 13:48:21 TV Rescue.Dog.To.Super.Dog.S01E03.720p.HDTV.x264-C4TV
2016-06-24 13:49:39 IMAGESET KarupsHA.com_16.06.24.Zelda.Morrison.XXX.IMAGESET-FuGLi
2016-06-24 13:49:44 TV-X264 Rescue.Dog.To.Super.Dog.S01E03.HDTV.x264-C4TV
2016-06-24 13:50:51 TV Its.Not.Me.Its.You.S01E01.720p.HDTV.x264-C4TV
2016-06-24 13:50:58 XXX KarupsHA.com_16.06.24.Misty.Lovelace.XXX.IMAGESET-FuGLi
2016-06-24 13:51:28 MP3 Nurogl_And_King_101--Rush-WEB-2016-WUS
2016-06-24 13:51:35 TV-X264 Its.Not.Me.Its.You.S01E01.HDTV.x264-C4TV
2016-06-24 13:51:47 XXX-IMAGESET KarupsPC.com_16.06.24.Katherine.Global.XXX.IMAGESET-FuGLi
2016-06-24 13:51:57 MP3 Phoenix--Isolator-WEB-2016-WUS
2016-06-24 13:52:29 MP3 Paggi_And_Costanzi--Discowall_Isatek-WEB-2016-WUS
2016-06-24 13:53:14 MP3 Phonique_Vago--Day_Dreamer-WEB-2016-WUS
2016-06-24 13:53:14 XXX-IMAGESET KarupsPC.com_16.06.24.Luna.Rival.XXX.IMAGESET-FuGLi
2016-06-24 13:54:13 MP3 Ld_Nero--Let_Your_Body_Speak-WEB-2016-WUS
2016-06-24 13:55:17 MP3 Mr_Groove--Let_It_Go-WEB-2016-WUS
2016-06-24 13:56:12 MP3 Miguel_Alcobia--Soul_Jacker-WEB-2016-WUS
2016-06-24 13:56:31 XXX-IMAGESET Nubiles.net_16.06.24.Sally.Lynn.First.Time.XXX.IMAGESET-FuGLi
2016-06-24 13:56:44 MP3 Pecasso--Fake_Professionals-WEB-2016-WUS
2016-06-24 13:57:17 MP3 Modovar--Love_For_The_Sake_Of_Love-WEB-2016-WUS
2016-06-24 13:57:32 XXX MetArtX.com_16.06.24.Ashley.Lane.Taste.Me.1.XXX.IMAGESET-GAGBALL
2016-06-24 13:58:22 IMAGESET Nubiles.net_16.06.24.Rosie.Cooper.Fresh.Face.Nubile.XXX.IMAGESET-FuGLi
2016-06-24 13:58:52 MP3 Anouka_And_Mr_Loi--Sad_Alien_In_Carousel_EP-WEB-2016-WUS
2016-06-24 13:59:53 MP3 Pete_Josef--Remixes-WEB-2016-WUS
2016-06-24 14:00:17 MP3 Mvrco_And_Doyley--Union-WEB-2016-WUS
2016-06-24 14:01:23 XXX-IMAGESET MC-Nudes.com_16.06.24.Morgane.Spread.XXX.IMAGESET-FuGLi
2016-06-24 14:01:32 MP3 Orphan--Lust-WEB-2016-WUS
2016-06-24 14:02:09 MP3 Pagadixx--Androgyn-WEB-2016-WUS
2016-06-24 14:03:25 XXX-IMGSET ALSScan.com_16.06.24.Anina.Silk.Good.Rub.XXX.IMAGESET-GAGBALL
2016-06-24 14:03:33 XXX-IMAGESET NaughtyAmerica.com_16.06.24.Juelz.Ventura.Stallion.My.Wifes.Hot.Friend.XXX.IMAGESET-FuGLi
2016-06-24 14:04:08 MP3 Azekel-Circa_EP-WEB-2013-ENRAGED
2016-06-24 14:04:19 MP3 Azekel-Mad_About_the_Boy_(Basecamp_Remix)-Single-WEB-2015-ENRAGED
2016-06-24 14:04:32 MP3 Azekel-Raw_Vol_1-WEB-2015-ENRAGED
2016-06-24 14:04:46 MP3 Azekel-The_War_Inside-Single-WEB-2015-ENRAGED
2016-06-24 14:04:56 MP3 Azekel-Linger-Single-WEB-2016-ENRAGED
2016-06-24 14:05:36 XXX-IMGSET ATKPetites.com_16.06.24.Molly.Mae.Babes.XXX.IMAGESET-GAGBALL
2016-06-24 14:06:01 IMAGESET NaughtyAmerica.com_16.06.24.Rachael.Madori.Johnny.Castle.My.Friends.Hot.Girl.XXX.IMAGESET-FuGLi
2016-06-24 14:06:45 MP3 Arkaik--Shapes_EP-WEB-2016-WUS
2016-06-24 14:07:12 TV-X264 Jimmy.Fallon.2016.06.23.Will.Forte.720p.HDTV.x264-aAF
2016-06-24 14:07:40 MP3 Lee_The_Fourth--And_So_It_Begins-WEB-2016-WUS
2016-06-24 14:08:12 MP3 Rub_C--Ignition-WEB-2016-WUS
2016-06-24 14:08:58 MP3 Dead_Fader--It_Works_1-WEB-2016-WUS
2016-06-24 14:09:15 XXX AuntJudys.com_16.06.24.Aaliyah.Love.Over30.XXX.IMAGESET-GAGBALL
2016-06-24 14:09:53 TV The.Catch.US.S01E07.iNTERNAL.FRENCH.1080p.HDTV.x264-AMB3R
2016-06-24 14:09:55 XXX NaughtyAmerica.com_16.06.24.Brandi.Love.Chad.White.Naughty.America.XXX.IMAGESET-FuGLi
2016-06-24 14:09:55 MP3 Akmal_Baksh--A_WhistleblowerS_Lament-WEB-2016-WUS
2016-06-24 14:10:45 XXX-PAY AuntJudys.com_16.06.24.Elexis.Monroe.Masturbation.XXX.IMAGESET-GAGBALL
2016-06-24 14:10:49 MP3 Safe_As_Milk--Organised_Grime-WEB-2016-WUS
2016-06-24 14:10:53 XXX-IMGSET Hegre-Art.com_16.06.24.Penelope.Form.And.Figure.XXX.IMAGESET-FuGLi
2016-06-24 14:11:07 TV-X264 One.Piece.E746.SUBFRENCH.720p.HDTV.x264-AMB3R
2016-06-24 14:11:26 MP3 Recloose--Honey_Rocks_EP-WEB-2016-WUS
2016-06-24 14:12:18 MP3 Dondria_Nicole-Luh_Ya-Single-WEB-2016-ENRAGED
2016-06-24 14:12:20 MP3 Flirta_D--The_Gash_Machine-WEB-2016-WUS
2016-06-24 14:12:24 TV-XVID One.Piece.E746.SUBFRENCH.HDTV.x264-AMB3R
2016-06-24 14:12:47 MP3 Dondria_Nicole-2_Good-Single-WEB-2016-ENRAGED
2016-06-24 14:13:02 MP3 Grindclock--Sight_Beyond_Sight-WEB-2016-WUS
2016-06-24 14:13:05 MP3 Noisecontrollers_and_Bass_Modulators_-_Holding_On_(Incl._Pro_Mix)-(Q129)-WEB-2016-HB
2016-06-24 14:13:44 MP3 Richie_Spice--Yap_Yap-WEB-2016-WUS
2016-06-24 14:13:47 MP3 DJ_Nuno_Miguel-Electricity_Up-WEB-2016-DWM
2016-06-24 14:14:41 XXXPAY PlayboyPlus.com_16.06.24.Angel.B.and.Pamela.Perfect.Stroke.XXX.IMAGESET-GAGBALL
2016-06-24 14:14:48 MP3 Dj_Kaos--Stone_Fox_Classic-WEB-2016-WUS
2016-06-24 14:15:29 MP3 DJ_Nuno_Miguel-Walking_To_Happiness-WEB-2016-DWM
2016-06-24 14:15:40 MP3 Human_Robot--The_Quantum_Element-WEB-2016-WUS
2016-06-24 14:15:44 XXX JimSlip.com_16.06.24.Arteya.Gagging.In.Gingham.XXX.IMAGESET-GAGBALL
2016-06-24 14:16:32 MP3 Deathmachine--Self_Distort_EP-WEB-2016-WUS
2016-06-24 14:16:34 XXX Twistys.com_16.06.24.Mila.Jade.in.Ill.Spread.My.Legs.Wide.XXX.IMAGESET-GAGBALL
2016-06-24 14:17:04 TV-X264-SD Jimmy.Fallon.2016.06.23.Will.Forte.HDTV.x264-aAF
2016-06-24 14:17:18 MP3 Hoodrat--Silhouette_EP-WEB-2016-WUS
2016-06-24 14:18:18 MP3 Arctic_Moon-We_Burn_Like_Stars-(FSOE171)-WEB-2016-UKHx
2016-06-24 14:21:03 MP3 Arnold_Tempo--The_Awakening_Of_Ganda-WEB-2016-WUS
2016-06-24 14:21:49 MP3 Earth_Control_Room--Acid_Theme_EP-WEB-2016-WUS
2016-06-24 14:22:28 MP3 John_OCallaghan_And_Clare_Stagg-Lies_Cost_Nothing_(Will_Atkinson_Remix)-(SUBC105)-WEB-2016-UKHx
2016-06-24 14:23:41 MP3 Nefti--15_Years_Anniversary_Album-WEB-2016-WUS
2016-06-24 14:23:50 MP3 Lee_Osbourne-Angels_Call_(Alex_Di_Stefano_Remix)-(MFORCE079)-WEB-2016-UKHx
2016-06-24 14:25:03 TV Criminal.Minds.Beyond.Borders.S01E10.1080p.HDTV.x264-SERIOUSLY
2016-06-24 14:25:32 MP3 Scott_Brown-Promise_(Outforce_Remix)-(EV146)-WEB-2016-UKHx
2016-06-24 14:26:29 XXX HotAndMean.com_16.06.24.Jayme.Langford.and.Jenna.Ashley.Get.Your.O.And.Go.XXX.IMAGESET-GAGBALL
2016-06-24 14:29:33 MP3 VA--40_Extreme_Hard_Techno_Multibundle-WEB-2016-WUS
2016-06-24 14:30:16 TV-X264-SD Love.Island.S02E18.WEB.x264-spamTV
2016-06-24 14:30:30 MP3 Sxthemadartist--Parallel_Instability-WEB-2016-WUS
2016-06-24 14:31:20 X264 Love.Island.S02E19.WEB.x264-spamTV
2016-06-24 14:31:39 MP3 Alignments--Alignments_Works-WEB-2016-WUS
2016-06-24 14:32:24 TV-X264 Love.Island.S02E20.WEB.x264-spamTV
2016-06-24 14:32:34 MP3 Julio_Marcus--In_B_Minor-WEB-2016-WUS
2016-06-24 14:33:28 TV Love.Island.S02E21.WEB.x264-spamTV
2016-06-24 14:33:33 MP3 Caveman--America-WEB-2016-WUS
2016-06-24 14:34:31 TV Love.Island.S02E22.WEB.x264-spamTV
2016-06-24 14:35:17 APPS MICROSOFT_10989A_PART_2_VIRTUAL_MACHINES_ANALYZING_DATA_WITH_POWER_BI_BASES_TUTORIAL-kEISO
2016-06-24 14:35:36 X264 Love.Island.S02E23.WEB.x264-spamTV
2016-06-24 14:36:07 MP3 Ironic_The_King_And_June--Grind_Pays-WEB-2016-WUS
2016-06-24 14:36:39 TV Love.Island.S02E24.WEB.x264-spamTV
2016-06-24 14:37:31 MP3 Nap_Project--Cloak_And_Swagger-WEB-2016-WUS
2016-06-24 14:37:44 X264 Love.Island.S02E25.WEB.x264-spamTV
2016-06-24 14:38:52 MP3 Big_Bear--Mr_Grizzly-WEB-2016-WUS
2016-06-24 14:39:00 XVID Sam.Whiskey.1969.German.BDRip.x264-CONTRiBUTiON
2016-06-24 14:40:49 MP3 Sha--Veliki_Mali_Covek-WEB-2016-WUS
2016-06-24 14:42:57 MP3 Emil_Euro--Truth-WEB-2016-WUS
2016-06-24 14:43:04 MP3 Afro_Bros-Wine_Gyal_(Ash_Remix)-WEB-2016-JAH
2016-06-24 14:43:25 MP3 Al_Fray-Good_Memories-WEB-2016-JAH
2016-06-24 14:43:46 MP3 Antwain-Antwain-WEB-2016-JAH
2016-06-24 14:44:08 MP3 Bakalao_Stars-Erotika-WEB-2016-JAH
2016-06-24 14:44:27 MP3 Jovivaa--The_Great_Minds-WEB-2016-WUS
2016-06-24 14:44:29 MP3 Ballyhoo-Girls-WEB-2016-JAH
2016-06-24 14:44:51 MP3 Bekey_Mills_feat_Koo_Ntakra-Come_Make_We_Dance-WEB-2016-JAH
2016-06-24 14:45:12 MP3 Bobby_Hustle-Cant_Get_Your_Love-WEB-2016-JAH
2016-06-24 14:45:33 MP3 Caleb_Hart-Always_Remember-WEB-2016-JAH
2016-06-24 14:45:53 MP3 Cash_King-Be_So_Mi_Mu_(Hold_Me)-WEB-2016-JAH
2016-06-24 14:46:13 MP3 Day_Who--1000_Glasova-WEB-2016-WUS
2016-06-24 14:46:14 MP3 Chanty_feat_Castro-Abiba-WEB-2016-JAH
2016-06-24 14:46:37 MP3 Cian_Finn-So_Nice_(Dreadsquad_Remix)-WEB-2016-JAH
2016-06-24 14:46:57 MP3 Delle-Before_I_Grow_Old_(Deluxe_Edition)-BONUS_TRACKS-WEB-2016-JAH
2016-06-24 14:47:17 MP3 Drina_Jai-Fire_Flame_Of_Love-WEB-2016-JAH
2016-06-24 14:47:40 MP3 Elephant_Man-Dance_Like_Wackie-WEB-2016-JAH
2016-06-24 14:48:00 MP3 Fantom_DunDeal-Come_Over_(Grinders_Riddim)-WEB-2016-JAH
2016-06-24 14:48:20 MP3 Fucha_Kid_feat_Pipa-Fyah_Truck-WEB-2016-JAH
2016-06-24 14:48:41 MP3 Hypasounds-Bam_Bam_Back-WEB-2016-JAH
2016-06-24 14:49:04 MP3 Jah_Roots_Soldier-Genese_(IAndI_Messenger_Record_Presents)-FR-WEB-2016-JAH
2016-06-24 14:49:24 MP3 Jo_Jo-Bumper-WEB-2016-JAH
2016-06-24 14:49:44 MP3 Johnny_P-Hot_Fi_Di_Summa-WEB-2016-JAH
2016-06-24 14:50:06 MP3 Kiko_Bun-Cant_Hold_Back-WEB-2016-JAH
2016-06-24 14:50:12 BLURAY-720P Figures.in.a.Landscape.1970.720p.BluRay.x264-SADPANDA
2016-06-24 14:50:26 MP3 Klassic-Back_It_Up_On_Me-WEB-2016-JAH
2016-06-24 14:50:48 MP3 Les_SkartOi-Fighting_on_the_Dancefloor-EP-WEB-2016-JAH
2016-06-24 14:51:09 MP3 Levi_Roots-Cool_Nuh_(Levi_Roots_Meets_Rum_N_Bass)-WEB-2016-JAH
2016-06-24 14:51:16 MP3 Chippass--Made_Man_2-WEB-2016-WUS
2016-06-24 14:51:29 MP3 Luciano-Come_Alive-WEB-2016-JAH
2016-06-24 14:51:52 MP3 Mighty_Crown_Family-Action-WEB-2016-JAH
2016-06-24 14:52:11 MP3 Mr_Legz-Bessi_Down-WEB-2016-JAH
2016-06-24 14:52:33 MP3 Mykal_Rose_feat_Capleton-Chucky-WEB-2016-JAH
2016-06-24 14:52:54 MP3 Patrixx_Anthony-Big_Ganja_Farmer_Riddim-WEB-2016-JAH
2016-06-24 14:52:58 MP3 Fortid--The_Demo_Sessions-WEB-2016-WUS
2016-06-24 14:53:16 MP3 RasDashaN-0496527777778-WEB-2016-JAH
2016-06-24 14:53:20 X264 Figures.in.a.Landscape.1970.1080p.BluRay.x264-SADPANDA
2016-06-24 14:53:36 MP3 RasDashaN-5_vor_12-WEB-2016-JAH
2016-06-24 14:53:59 MP3 Ras_Charmer-Cant_Let_Go-WEB-2016-JAH
2016-06-24 14:54:19 MP3 Ras_Charmer_feat_Tasonia-Bills_(Remix)-WEB-2016-JAH
2016-06-24 14:54:40 MP3 Raytid-A_Baay-WEB-2016-JAH
2016-06-24 14:54:48 MP3 Grimner-Moerkrets_Hem_(Single)-WEB-SE-2016-I_KnoW_INT
2016-06-24 14:54:59 MP3 Producer_9-0--Up_And_About-WEB-2016-WUS
2016-06-24 14:55:03 MP3 Sarkodie-No_Kissing_Baby-WEB-2016-JAH
2016-06-24 14:55:23 MP3 Shal_Marshall-Hookah-WEB-2016-JAH
2016-06-24 14:55:45 MP3 Spragga_Benz_feat_Sanchez-Cool_Breeze-WEB-2016-JAH
2016-06-24 14:56:05 MP3 Tivick-Dweet_To-WEB-2016-JAH
2016-06-24 14:56:26 MP3 Tuffest-Eyes_On_The_Crime-WEB-2016-JAH
2016-06-24 14:56:36 MP3 Asap_Preach--Always_Say_A_Prayer-WEB-2016-WUS
2016-06-24 14:56:48 MP3 VA-Boss_Wuk_Riddim-WEB-2016-JAH
2016-06-24 14:57:08 MP3 VA-Confetti_Riddim-WEB-2016-JAH
2016-06-24 14:57:30 MP3 VA-Ganja_Anthems-WEB-2016-JAH
2016-06-24 14:57:52 MP3 VA-Hot_Property_Riddim_(by_Aya_T)-WEB-2016-JAH
2016-06-24 14:58:14 MP3 VA-Reggae_Soldier_Series_Pt_2_(Deluxe_Version)-BONUS_TRACKS-WEB-2016-JAH
2016-06-24 14:58:15 X264 The.Knack.and.How.to.Get.It.1965.720p.BluRay.x264-SADPANDA
2016-06-24 14:58:35 MP3 VA-Reggae_Soldier_Series_Pt_3_(Deluxe_Version)-BONUS_TRACKS-WEB-2016-JAH
2016-06-24 14:58:51 MP3 Los_Lucians--Prohibido_Pensar-WEB-2016-WUS
2016-06-24 14:58:58 MP3 VA-Reggae_Soldier_Series_Pt_4_(Deluxe_Version)-BONUS_TRACKS-WEB-2016-JAH
2016-06-24 14:59:17 MP3 VA-Reggae_Soldier_Series_Pt_5_(Deluxe_Version)-BONUS_TRACKS-WEB-2016-JAH
2016-06-24 14:59:35 MP3 VA-Wedding_Songs_For_Lovers-WEB-2016-JAH
2016-06-24 14:59:56 MP3 Wasp-Addicted-WEB-2016-JAH
2016-06-24 15:00:00 X264 The.Knack.and.How.to.Get.It.1965.1080p.BluRay.x264-SADPANDA
2016-06-24 15:00:18 MP3 XY-Chocolate_Barr-WEB-2016-JAH
2016-06-24 15:01:31 MP3 D-Loc_The_Gill_God--Narcissistic_The_God_Complex-WEB-2016-WUS
2016-06-24 15:03:19 MP3 7_Birches--Nothing_I_Know-WEB-2016-WUS
2016-06-24 15:04:01 DOKUHD Die.Schlachtfabrik.GERMAN.DOKU.720p.HDTV.x264-OWG
2016-06-24 15:04:13 DOKU-X264 Die.Schlachtfabrik.GERMAN.DOKU.HDTVRiP.x264-OWG
2016-06-24 15:04:47 BLURAY Figures.in.a.Landscape.1970.COMPLETE.BLURAY-watchHD
2016-06-24 15:05:15 MP3 Majesty_Of_Revival--Dualism-WEB-2016-WUS
2016-06-24 15:06:39 MP3 White_Boy_Illest--This_Is_An_Album-WEB-2016-WUS
2016-06-24 15:07:32 X264 Figures.in.a.Landscape.1970.iNTERNAL.BDRip.x264-LiBRARiANS
2016-06-24 15:07:40 MP3 Spank--SlapUp_And_Noblest-WEB-2016-WUS
2016-06-24 15:08:36 MP3 Jordan_Knoxx--Puzzle_Pieces-WEB-2016-WUS
2016-06-24 15:08:45 XVID The.Knack.and.How.to.Get.It.1965.iNTERNAL.BDRip.x264-LiBRARiANS
2016-06-24 15:09:48 MP3 Blaakyum--Line_Of_Fear-WEB-2016-WUS
2016-06-24 15:10:47 MP3 Andrew_Restrepo--Momentum-WEB-2016-WUS
2016-06-24 15:11:06 GAMES Shaolin.vs.Wutang-HI2U
2016-06-24 15:11:50 MP3 Joseph_Knight--Nervous-WEB-2016-WUS
2016-06-24 15:13:32 MP3 Caterina_Christakos--Meditation_Music_For_Anxiety-WEB-2016-WUS
2016-06-24 15:15:17 MP3 Matthew_Decker--The_Wild_Wild_World_Of_Matthew_Decker-WEB-2016-WUS
2016-06-24 15:16:06 MP3 Anthony_Duran--Mirrors_Of_A_Better_Life-WEB-2016-WUS
2016-06-24 15:16:36 TV Dead.7.2016.GERMAN.DL.720p.HDTV.x264-FiLMCHEN
2016-06-24 15:17:14 MP3 Mind_Traveller--All_The_Signs-WEB-2016-WUS
2016-06-24 15:17:44 TV-ANIME-SD Pokemon.S18E36.Auch.Kampfgeist.kann.zerbrechen.German.ANiME.dTV.x264-TVARCHiV
2016-06-24 15:18:40 MP3 Surprising_Flavor--Beach_Party-WEB-2016-WUS
2016-06-24 15:18:59 BLURAY Doomwatch.1972.COMPLETE.BLURAY-VEXHD
2016-06-24 15:19:29 MP3 Archityrants--Sleep_Of_The_Damned-WEB-2016-WUS
2016-06-24 15:19:41 X264-SD-DE Verflucht.German.2005.DL.DVDRiP.X264.iNTERNAL-NGE
2016-06-24 15:19:45 SD-SERIES Pokemon.S18E37.Ein.legendaerer.Fototermin.German.ANiME.dTV.x264-TVARCHiV
2016-06-24 15:20:22 MP3 Zney_Boogie_And_Frosty_Fin--The_Startup-WEB-2016-WUS
2016-06-24 15:21:11 MP3 Laura_Greaves--High_Tide_EP-WEB-2016-WUS
2016-06-24 15:21:48 ANIME Pokemon.S18E38.Die.winzige.Betreuerin.German.ANiME.dTV.x264-TVARCHiV
2016-06-24 15:22:00 MP3 Nothing_To_Offer--Recondition-WEB-2016-WUS
2016-06-24 15:23:05 MP3 Randy_Moon_Unit--Remounted-WEB-2016-WUS
2016-06-24 15:23:44 MP3 Sean_Maclean--Pixelated-WEB-2016-WUS
2016-06-24 15:23:52 TV Pokemon.S18E39.Reise.in.die.Vergangenheit.German.ANiME.dTV.x264-TVARCHiV
2016-06-24 15:24:10 MP3 Stuka--Turn_Up-WEB-2016-WUS
2016-06-24 15:24:57 MP3 Theo_Kottis--I_Wont_Forget_All_That_Time-WEB-2016-WUS
2016-06-24 15:25:21 MP3 Trix_Dk--Legends-WEB-2016-WUS
2016-06-24 15:25:42 TV UEFA.Euro.2016.Group.E.Sweden.vs.Belgium.SWEDiSH.720p.HDTV.x264-PRiNCE
2016-06-24 15:25:57 MP3 The_Boogeyman--Ode_To_Obama-WEB-2016-WUS
2016-06-24 15:26:51 MP3 Shezekiel--A_Message_From_Shezekiel-WEB-2016-WUS
2016-06-24 15:27:29 MP3 Yellowtail--Elektrik_Blvd_Octo-WEB-2016-WUS
2016-06-24 15:27:56 TV-DOKU-HD Xenius.-.Wie.entstehen.Polarlichter.720p.GERMAN.DOKU.720p.HDTV.x264-OWG
2016-06-24 15:28:05 MP3 Will_Lister--Phantom_EP-WEB-2016-WUS
2016-06-24 15:28:07 TV-X264 Xenius.-.Wie.entstehen.Polarlichter.GERMAN.DOKU.HDTVRip.x264-OWG
2016-06-24 15:29:04 MP3 Waste_Of_Mind--Dead_End_Streets-WEB-2016-WUS
2016-06-24 15:29:41 X264 Undercover.Blues.1993.720p.BluRay.x264-SADPANDA
2016-06-24 15:30:58 X264 Undercover.Blues.1993.1080p.BluRay.x264-SADPANDA
2016-06-24 15:31:01 MP3 Jet_Wilson--Painted_Melodies-WEB-2016-WUS
2016-06-24 15:32:25 MP3 Jonathan_Timm--Fever_Dream-WEB-2016-WUS
2016-06-24 15:32:53 X264 Undercover.Blues.1993.iNTERNAL.BDRip.x264-LiBRARiANS
2016-06-24 15:33:09 TV Dead.7.2016.GERMAN.HDTV.x264-FiLMCHEN
2016-06-24 15:33:12 MP3 Nhatty_Man_And_Gara--Selam-WEB-2016-WUS
2016-06-24 15:33:23 TV-X264 Generation.X.S01E04.Die.Welt.im.Wandel.GERMAN.DOKU.720p.HDTV.x264.INTERNAL-RiO
2016-06-24 15:33:36 FLAC Alice_Cooper-Classicks-CD-FLAC-1995-mwnd
2016-06-24 15:33:41 MP3 Wes_V_And_Tlb--BelgiuuumGo-WEB-2016-WUS
2016-06-24 15:34:40 MP3 Wolfgang_Tillmans--2016_1986_EP-WEB-2016-WUS
2016-06-24 15:34:45 FLAC Enchant-The_Great_Divide-CD-FLAC-2014-mwnd
2016-06-24 15:35:12 TV-X264 Generation.X.S01E04.Die.Welt.im.Wandel.GERMAN.DOKU.HDTVRip.x264.INTERNAL-RiO
2016-06-24 15:35:24 FLAC Motley_Crue-Greatest_Hits-CD-FLAC-1998-mwnd
2016-06-24 15:35:25 MP3 You_Man--There_Is_A_Land-WEB-2016-WUS
2016-06-24 15:36:07 TV Alaskan.Bush.People.S01E01.DVDRip.x264-PHASE
2016-06-24 15:37:10 MP3 Massimo_Madeddu--A_Destiny-WEB-2016-WUS
2016-06-24 15:37:13 TV-DVDRIP Alaskan.Bush.People.S01E02.DVDRip.x264-PHASE
2016-06-24 15:37:30 FLAC Neal_Morse-Momentum-SPECIAL_EDITION-CD-FLAC-2012-mwnd
2016-06-24 15:38:09 TV-X264-SD Alaskan.Bush.People.S01E03.DVDRip.x264-PHASE
2016-06-24 15:38:29 MP3 Wolky--Crime-WEB-2016-WUS
2016-06-24 15:39:02 TV Alaskan.Bush.People.S01E04.DVDRip.x264-PHASE
2016-06-24 15:40:18 TV Alaskan.Bush.People.S01E05.DVDRip.x264-PHASE
2016-06-24 15:40:52 FLAC Poison-Poisons_Greatest_Hits_1986-1996-CD-FLAC-1996-mwnd
2016-06-24 15:41:59 BLURAY The.Knack.and.How.to.Get.It.1965.COMPLETE.BLURAY-watchHD
2016-06-24 15:44:57 FLAC Sinergy-Beware_The_Heavens-JP_RETAIL-CD-FLAC-1999-mwnd
2016-06-24 15:47:00 TV-X264 Hank.Zipzer.S03E05.720p.WEB.h264-spamTV
2016-06-24 15:48:02 FLAC Sinergy-To_Hell_And_Back-JP_RETAIL-CD-FLAC-2000-mwnd
2016-06-24 15:48:08 TV Hetty.Feather.S02E07.720p.WEB.h264-spamTV
2016-06-24 15:48:42 FLAC Sinergy-Suicide_By_My_Side-JP_RETAIL-CD-FLAC-2002-mwnd
2016-06-24 15:49:03 FLAC Timo_Tolkki-Saana_Warrior_Of_Light_Pt_1_Journey_To_Crystal_Island-CD-FLAC-2008-mwnd
2016-06-24 15:49:29 FLAC Xy-Sedunum-CD-FLAC-2014-mwnd
2016-06-24 15:50:45 MP3 Tay_Tay_White--North_Side-WEB-2016-WUS
2016-06-24 15:51:21 X264 Kleine.Fische.2009.GERMAN.720p.WebHD.x264-CiHD
2016-06-24 15:53:07 MP3 Gallary--Mr_Lansky-WEB-2016-WUS
2016-06-24 15:55:24 TV-X264 Kleine.Fische.2009.GERMAN.1080p.WebHD.x264-CiHD
2016-06-24 15:55:25 TV Matilda.And.The.Ramsay.Bunch.S02E03.720p.WEB.h264-spamTV
2016-06-24 15:56:18 MP3 Van_Holt--Face_Off_The_Megamix_2016-WEB-2016-WUS
2016-06-24 15:56:29 TV-X264 Matilda.And.The.Ramsay.Bunch.S02E04.720p.WEB.h264-spamTV
2016-06-24 15:58:33 TV Matilda.And.The.Ramsay.Bunch.S02E05.720p.WEB.h264-spamTV
2016-06-24 15:59:39 TV Matilda.And.The.Ramsay.Bunch.S02E06.720p.WEB.h264-spamTV
2016-06-24 16:00:42 TV Matilda.And.The.Ramsay.Bunch.S02E07.720p.WEB.h264-spamTV
2016-06-24 16:01:48 TV BattleBots.2015.S02E01.720p.HDTV.x264-CROOKS
2016-06-24 16:03:33 MP3 Compton_World-The_Function_(Hosted_by_DJ_Mustard_And_DJ_Carisma)-WEB-2014-ENRAGED
2016-06-24 16:03:48 MP3 D_n_D-Groupie_the_Mix_Tape_(Hosted_by_DJ_Carisma)-WEB-2011-ENRAGED
2016-06-24 16:03:58 MP3 Mr_WhiteDogg-Tunnel_Vision-Hosted_By_DJ_Skee_And_DJ_Carisma-WEB-2014-ENRAGED
2016-06-24 16:04:12 MP3 Mr_WhiteDogg-Tunnel_Vision_3_the_Transition-WEB-2015-ENRAGED
2016-06-24 16:04:25 MP3 SBA1-Everything_A1_(Hosted_By_DJ_Carisma)-WEB-2015-ENRAGED
2016-06-24 16:04:34 MP3 Victoria_Monet-Nightmares_And_Lullabies_Act_1-WEB-2014-ENRAGED
2016-06-24 16:04:47 MP3 Victoria_Monet-Nightmares_And_Lullabies_Act_2-WEB-2015-ENRAGED
2016-06-24 16:05:58 MP3 Jacqui_Mccoy--Start_The_Party-WEB-2016-WUS
2016-06-24 16:06:57 MP3 Squarewave--Reality-WEB-2016-WUS
2016-06-24 16:08:30 MP3 Devin_Maxwell--Works_201114-WEB-2016-WUS
2016-06-24 16:09:40 MP3 Yung_Koconut_X_Hdthe1--Pegasus-WEB-2016-WUS
2016-06-24 16:10:51 MP3 Wax_Wings--The_Love_Inside_Me-WEB-2016-WUS
2016-06-24 16:12:02 MP3 Keanut_Ping--Baltimore_Shyt-WEB-2016-WUS
2016-06-24 16:12:59 MP3 Strapontin--Pedigree-WEB-2016-WUS
2016-06-24 16:14:13 MP3 Dakota_And_Monsieur_Sai--Libert-WEB-2016-WUS
2016-06-24 16:15:06 MP3 Tim_Sobolev--Fire-WEB-2016-WUS
2016-06-24 16:15:20 BLURAY Undercover.Blues.1993.COMPLETE.BLURAY-watchHD
2016-06-24 16:17:22 X264 Sam.Whiskey.1969.German.720p.BluRay.x264-CONTRiBUTiON
2016-06-24 16:20:42 MP3 Toco--Right_Place-WEB-2016-WUS
2016-06-24 16:21:19 MP3 Nassau--Hoss-WEB-2016-WUS
2016-06-24 16:22:14 MP3 Ooohelen--Travel-WEB-2016-WUS
2016-06-24 16:23:16 MP3 Phil_Gherardi--Up_On_A_Sunset_(Lowerside_Soul_Project)-WEB-2016-WUS
2016-06-24 16:24:17 MP3 Lessnoise--Shedding_Light-WEB-2016-WUS
2016-06-24 16:25:01 MP3 String_Noise--Covers-WEB-2016-WUS
2016-06-24 16:26:21 MP3 Pola_And_Bryson--Things_I_Do_EP-WEB-2016-WUS
2016-06-24 16:30:20 MP3 Mala-Mirrors-WEB-2016-BNP
2016-06-24 16:36:49 MP3 Karl_Stein--Def-WEB-2016-WUS
2016-06-24 16:37:33 MP3 Dubeats--Persephone_EP-WEB-2016-WUS
2016-06-24 16:38:33 MP3 David_Mod--Spanish_F-WEB-2016-WUS
2016-06-24 16:39:39 MP3 Devid--I_Dont_Sleep-WEB-2016-WUS
2016-06-24 16:40:59 MP3 Yaya--Una_Belleza_Torpe_En_El_Amor_EP-WEB-2016-WUS
2016-06-24 16:42:15 MP3 Alex_Bau--Organic_Deformation_Of_Oz_EP-WEB-2016-WUS
2016-06-24 16:43:17 MP3 Frankstar_Vs_Tom_E_Tutone_Feat_Kym_Sims--Deep_In_The_City-WEB-2016-WUS
2016-06-24 16:44:05 MP3 Alfredo_Arruti--Ninshiki_Remasterized-WEB-2016-WUS
2016-06-24 16:45:13 MP3 Doryan_Hell_And_Robert_Stahl--Beat_Ricos_Face-WEB-2016-WUS
2016-06-24 16:46:17 TV-X264 Anne.Happy.S01E12.1080p.WEB.x264-ANiURL
2016-06-24 16:46:18 MP3 Koncide--Consciousness-WEB-2016-WUS
2016-06-24 16:46:58 TV-X264 Anne.Happy.S01E12.720p.WEB.x264-ANiURL
2016-06-24 16:47:05 MP3 Centvries--Aphrodite_EP-WEB-2016-WUS
2016-06-24 16:47:16 TV-XVID Anne.Happy.S01E12.WEB.x264-ANiURL
2016-06-24 16:47:24 TV-X264 Bungo.Stray.Dogs.S01E12.1080p.WEB.x264-ANiURL
2016-06-24 16:47:50 MP3 Eddie_M--Nightmare_EP-WEB-2016-WUS
2016-06-24 16:47:54 TVHD Bungo.Stray.Dogs.S01E12.720p.WEB.x264-ANiURL
2016-06-24 16:48:03 TV Bungo.Stray.Dogs.S01E12.WEB.x264-ANiURL
2016-06-24 16:48:21 TV-XVID Kiznaiver.S01E03.iNTERNAL.WEB.x264-ANiURL
2016-06-24 16:48:24 MP3 Christian_Lepah--Belive-WEB-2016-WUS
2016-06-24 16:48:32 TV-HD-X264 Kiznaiver.S01E03.1080p.WEB.x264-ANiURL
2016-06-24 16:48:59 TV-HD-X264 Kiznaiver.S01E03.720p.WEB.x264-ANiURL
2016-06-24 16:49:24 TVHD Cerberus.S01E08.1080p.WEB.x264-ANiURL
2016-06-24 16:49:40 TV-HD-X264 Cerberus.S01E08.720p.WEB.x264-ANiURL
2016-06-24 16:49:48 TV-X264-SD Cerberus.S01E08.WEB.x264-ANiURL
2016-06-24 16:50:10 MP3 VA--Deep_And_Indie_Bits_Vol_2-WEB-2016-WUS
2016-06-24 16:50:35 TV-X264-HD Crane.Game.Girls.S01E12.1080p.WEB.x264-ANiURL
2016-06-24 16:50:49 TV-HD-X264 Crane.Game.Girls.S01E12.720p.WEB.x264-ANiURL
2016-06-24 16:50:57 TV-X264 Crane.Game.Girls.S01E12.WEB.x264-ANiURL
2016-06-24 16:51:08 TV-HD-X264 High.School.Fleet.S01E03.1080p.WEB.x264-ANiURL
2016-06-24 16:51:12 MP3 Djedjotronic--Strapon-WEB-2016-WUS
2016-06-24 16:51:32 TV-HD-X264 High.School.Fleet.S01E03.720p.WEB.x264-ANiURL
2016-06-24 16:51:45 TV-X264 High.School.Fleet.S01E03.iNTERNAL.WEB.x264-ANiURL
2016-06-24 16:51:56 TV-HD-X264 Joker.Game.S01E04.1080p.WEB.x264-ANiURL
2016-06-24 16:52:10 TV-X264 Joker.Game.S01E04.720p.WEB.x264-ANiURL
2016-06-24 16:52:17 TV Joker.Game.S01E04.iNTERNAL.WEB.x264-ANiURL
2016-06-24 16:52:33 TV Kyoukai.No.Rinne.S02E11.1080p.WEB.x264-ANiURL
2016-06-24 16:52:50 MP3 Deni_Maker--Dont_Play_With_Me-WEB-2016-WUS
2016-06-24 16:53:05 TV-X264-HD Kyoukai.No.Rinne.S02E11.720p.WEB.x264-ANiURL
2016-06-24 16:53:16 TV-X264 Kyoukai.No.Rinne.S02E11.WEB.x264-ANiURL
2016-06-24 16:53:45 MP3 Christian_Morgenstern--Remixes_38-WEB-2016-WUS
2016-06-24 16:55:28 MP3 VA--Daily_Minimal_Pack_69-WEB-2016-WUS
2016-06-24 16:58:12 MP3 Aron_Miller_feat_Bruno_Bah-I_Like_You-WEB-2016-JAH
2016-06-24 16:58:37 MP3 Minister_Taf-Summer_Time-WEB-2016-JAH
2016-06-24 16:59:04 MP3 The_Bluntest-Jah_Lives_Within-WEB-2016-JAH
2016-06-24 16:59:28 MP3 VA-Welcome_to_the_Dancehall_Vol_1-WEB-2016-JAH
2016-06-24 17:00:39 FLAC VA-Fabric_88-Ryan_Elliott-(FABRIC175)-CD-FLAC-2016-SPL
2016-06-24 17:01:37 TV-HD-X264 Space.Patrol.Luluco.S01E05.1080p.WEB.x264-ANiURL
2016-06-24 17:01:40 MP3 Dani_Masi_Jus_Deelax_Lady_Chus_Feat._Celia_Fox-Sunglasses_At_Night__Extended_Mix-(CSDA1289)-WEB-2016-UKHx
2016-06-24 17:01:57 TV Space.Patrol.Luluco.S01E05.720p.WEB.x264-ANiURL
2016-06-24 17:02:08 TV Space.Patrol.Luluco.S01E05.WEB.x264-ANiURL
2016-06-24 17:02:20 TV-X264 The.Asterisk.War.S02E12.1080p.WEB.x264-ANiURL
2016-06-24 17:02:35 MP3 Yinon_Yahel_Feat._Nalaya-Love_Me_Like_A_Diva-(GR225)-WEB-2016-UKHx
2016-06-24 17:03:59 USANIME The.Asterisk.War.S02E12.720p.WEB.x264-ANiURL
2016-06-24 17:04:11 USANIME The.Asterisk.War.S02E12.WEB.x264-ANiURL
2016-06-24 17:05:26 0DAY Dungeon.of.Gain-DARKSiDERS
2016-06-24 17:07:14 TV-HD-X264 Twin.Star.Exorcists.S01E12.1080p.WEB.x264-ANiURL
2016-06-24 17:07:30 TV-HD-X264 Twin.Star.Exorcists.S01E12.720p.WEB.x264-ANiURL
2016-06-24 17:07:38 TV-X264 Twin.Star.Exorcists.S01E12.WEB.x264-ANiURL
2016-06-24 17:07:42 GAMES Cursed-DARKSiDERS
2016-06-24 17:08:28 TV-HD-X264 Ushio.and.Tora.S02E12.1080p.WEB.x264-ANiURL
2016-06-24 17:09:08 TV-HD-X264 Ushio.and.Tora.S02E12.720p.WEB.x264-ANiURL
2016-06-24 17:09:24 TV-X264 Ushio.and.Tora.S02E12.WEB.x264-ANiURL
2016-06-24 17:11:57 MP3 D_n_D-Do_(feat_Iamsu)-Single-WEB-2013-ENRAGED
2016-06-24 17:12:08 MP3 Jordan_Bratton-The_Grey_Area-WEB-2013-ENRAGED
2016-06-24 17:12:21 MP3 Jordan_Bratton-Must_Be-Single-WEB-2014-ENRAGED
2016-06-24 17:12:31 MP3 Jordan_Bratton-When_I_Get_There-Single-WEB-2014-ENRAGED
2016-06-24 17:12:44 MP3 Jordan_Bratton-Drugs_You_Should_Try_It-Single-WEB-2015-ENRAGED
2016-06-24 17:12:56 MP3 Jordan_Bratton-Frank-Single-WEB-2015-ENRAGED
2016-06-24 17:22:23 HDTV From.Vegas.to.Macau.3.2016.720p.BluRay.x264-ROVERS
2016-06-24 17:24:12 TV SpongeBob.Schwammkopf.S04E11b.German.FS.DVDRip.x264.iNTERNAL.REPACK-TVARCHiV
2016-06-24 17:25:44 X264 Trivisa.2016.720p.BluRay.x264-ROVERS
2016-06-24 17:27:06 MP3 US_TOP20_Single_Charts_25_06_2016-MCG
2016-06-24 17:30:41 X264 From.Vegas.to.Macau.3.2016.BDRip.x264-ROVERS
2016-06-24 17:31:27 XXX-PAYSITE DaneJones.16.06.24.Erica.Black.Raven.Haired.Nymph.XXX.1080p.MP4-KTR
2016-06-24 17:32:56 X264 Trivisa.2016.BDRip.x264-ROVERS
2016-06-24 17:32:57 XXX DaughterSwap.16.06.24.Yhivi.Besties.Share.Everything.Even.Dads.XXX.1080p.MP4-KTR
2016-06-24 17:33:41 XXX FakeHospital.16.06.24.Chloe.Lovette.And.Valerie.XXX.1080p.MP4-KTR
2016-06-24 17:33:45 MP3 Gentleman_and_Ky-Mani_Marley-Conversations-2016-NOiR
2016-06-24 17:34:43 MP3 Ambre_Perkins-Wanderlust-WEB-2015-ENRAGED
2016-06-24 17:34:55 MP3 Ambre_Perkins-2090s-WEB-2016-ENRAGED
2016-06-24 17:35:20 X264 From.Vegas.to.Macau.3.2016.1080p.BluRay.x264-ROVERS
2016-06-24 17:35:37 XXX PropertySex.16.06.24.Harley.Jade.Best.Unboxing.Video.Ever.XXX.1080p.MP4-KTR
2016-06-24 17:36:28 XXX-0DAY PublicAgent.16.06.24.Natalia.XXX.1080p.MP4-KTR
2016-06-24 17:37:01 XXX SwallowSalon.16.06.24.Scarlett.Sage.XXX.1080p.MP4-KTR
2016-06-24 17:37:05 MP3 VA-Electronic_Dance_Music-WEB-2016-UKHx
2016-06-24 17:38:13 XXX-0DAY TeensLoveAnal.16.06.24.Marsha.May.XXX.1080p.MP4-KTR
2016-06-24 17:39:10 X264 Trivisa.2016.1080p.BluRay.x264-ROVERS
2016-06-24 17:39:35 XXX TeensLoveBlackCocks.16.06.24.Jojo.Kiss.XXX.1080p.MP4-KTR
2016-06-24 17:39:48 TV The.Wonder.of.the.Animals.E01.Raubtiere.German.DL.DOKU.1080p.BluRay.x264-TV4A
2016-06-24 17:40:34 TV-X264 The.Wonder.of.the.Animals.E01.Raubtiere.German.DL.DOKU.720p.BluRay.x264-TV4A
2016-06-24 17:41:27 TV The.Wonder.of.the.Animals.E01.Raubtiere.German.DOKU.WS.BDRiP.x264-TV4A
2016-06-24 17:42:39 TVX264 Conflict.Zone.2016.04.13.Witold.Waszczykowski.WEB.h264-OmarMateen
2016-06-24 17:42:41 PRE Conflict.Zone.2016.04.13.Witold.Waszczykowski.720p.WEB.h264-OmarMateen
2016-06-24 17:43:00 TVX264 Conflict.Zone.2016.04.20.Selim.Yenel.WEB.h264-OmarMateen
2016-06-24 17:43:01 TV720 Conflict.Zone.2016.04.20.Selim.Yenel.720p.WEB.h264-OmarMateen
2016-06-24 17:43:16 TVX264 Conflict.Zone.2016.04.27.Cem.Ozdemir.WEB.h264-OmarMateen
2016-06-24 17:43:19 TV720 Conflict.Zone.2016.04.27.Cem.Ozdemir.720p.WEB.h264-OmarMateen
2016-06-24 17:43:41 XXX CosplayBabes.16.06.24.Honesty.Calliaro.Ghoul.On.Ghoul.XXX.1080p.MP4-KTR
2016-06-24 17:43:42 TVX264 Conflict.Zone.2016.05.04.Lamberto.Zannier.WEB.h264-OmarMateen
2016-06-24 17:43:55 TV-HD Conflict.Zone.2016.05.04.Lamberto.Zannier.720p.WEB.h264-OmarMateen
2016-06-24 17:44:10 TVX264 Conflict.Zone.2016.05.11.Nikos.Pappas.WEB.h264-OmarMateen
2016-06-24 17:44:16 TV-X264 Conflict.Zone.2016.05.11.Nikos.Pappas.720p.WEB.h264-OmarMateen
2016-06-24 17:44:27 TV-HD Conflict.Zone.2016.05.18.Vladimir.Chizhov.720p.WEB.h264-OmarMateen
2016-06-24 17:44:33 XXX-0DAY MrStrokesXXX.16.06.24.Sara.Vandella.Anal.XXX.1080p.MP4-KTR
2016-06-24 17:45:00 TV-SD Quadriga.2016.03.03.Germanys.Neo-Nazis.To.Ban.Or.Not.To.Ban.WEB.h264-OmarMateen
2016-06-24 17:45:03 TV-HD Quadriga.2016.03.03.Germanys.Neo-Nazis.To.Ban.Or.Not.To.Ban.720p.WEB.h264-OmarMateen
2016-06-24 17:45:12 XXX StraplessDildo.16.06.24.Mia.And.Rossy.Bush.XXX.1080p.MP4-KTR
2016-06-24 17:45:34 TV-SD Quadriga.2016.03.10.State.Elections.in.Germany.D-Day.for.Merkel.WEB.h264-OmarMateen
2016-06-24 17:45:41 TV-HD Quadriga.2016.03.10.State.Elections.in.Germany.D-Day.for.Merkel.720p.WEB.h264-OmarMateen
2016-06-24 17:46:06 TV-SD Quadriga.2016.03.17.Election.Earthquake.Is.Merkel.to.Blame.WEB.h264-OmarMateen
2016-06-24 17:46:12 TV-HD Quadriga.2016.03.17.Election.Earthquake.Is.Merkel.to.Blame.720p.WEB.h264-OmarMateen
2016-06-24 17:46:18 XXX StraplessDildo.16.06.24.Mia.And.Rossy.Bush.XXX.2160p.MP4-KTR
2016-06-24 17:46:28 TVX264 Quadriga.2016.04.07.Panama.Papers.How.Dirty.Is.The.Hidden.Money.WEB.h264-OmarMateen
2016-06-24 17:46:31 TV720 Quadriga.2016.04.07.Panama.Papers.How.Dirty.Is.The.Hidden.Money.720p.WEB.h264-OmarMateen
2016-06-24 17:46:41 X264 LEGO.DC.Comics.Super.Heroes.Justice.League.Gotham.City.Breakout.2016.720p.BluRay.x264-ROVERS
2016-06-24 17:46:56 XXX-0DAY VelvetEcstasy.16.06.24.Amber.Cream.Nutty.Mess.XXX.1080p.MP4-KTR
2016-06-24 17:47:19 TVX264 Quadriga.2016.04.14.Germanys.Satire.Affair.Who.Will.Have.the.Last.Laugh.WEB.h264-OmarMateen
2016-06-24 17:47:28 TV-HD Quadriga.2016.04.14.Germanys.Satire.Affair.Who.Will.Have.the.Last.Laugh.720p.WEB.h264-OmarMateen
2016-06-24 17:47:37 TVX264 Quadriga.2016.04.21.How.Compatible.Are.Islam.and.Democracy.WEB.h264-OmarMateen
2016-06-24 17:47:40 TV720 Quadriga.2016.04.21.How.Compatible.Are.Islam.and.Democracy.720p.WEB.h264-OmarMateen
2016-06-24 17:48:03 TVX264 Quadriga.2016.04.28.Journalists.in.Fear.The.End.of.Press.Freedom.WEB.h264-OmarMateen
2016-06-24 17:48:07 TV720 Quadriga.2016.04.28.Journalists.in.Fear.The.End.of.Press.Freedom.720p.WEB.h264-OmarMateen
2016-06-24 17:48:43 TVX264 Quadriga.2016.05.19.Crisis.in.Austria.Another.Blow.for.Europe.WEB.h264-OmarMateen
2016-06-24 17:48:51 TV-HD Quadriga.2016.05.19.Crisis.in.Austria.Another.Blow.for.Europe.720p.WEB.h264-OmarMateen
2016-06-24 17:49:17 TV-SD Quadriga.2016.06.02.Crisis.in.France.How.Wounded.Is.the.Grande.Nation.WEB.h264-OmarMateen
2016-06-24 17:49:27 TV-HD Quadriga.2016.06.02.Crisis.in.France.How.Wounded.Is.the.Grande.Nation.720p.WEB.h264-OmarMateen
2016-06-24 17:49:45 TV-SD Quadriga.2016.06.09.Trump.vs.Clinton.Anger.against.The.Establishment.WEB.h264-OmarMateen
2016-06-24 17:49:50 TV-HD Quadriga.2016.06.09.Trump.vs.Clinton.Anger.against.The.Establishment.720p.WEB.h264-OmarMateen
2016-06-24 17:50:12 TVX264 Quadriga.2016.06.16.Brexit.Should.the.UK.Stay.or.Go.WEB.h264-OmarMateen
2016-06-24 17:50:17 X264 Quadriga.2016.06.16.Brexit.Should.the.UK.Stay.or.Go.720p.WEB.h264-OmarMateen
2016-06-24 17:50:35 TVX264 Quadriga.2016.06.23.Doping.and.Hooligans.How.Dirty.Is.Russian.Sport.WEB.h264-OmarMateen
2016-06-24 17:50:45 TV720 Quadriga.2016.06.23.Doping.and.Hooligans.How.Dirty.Is.Russian.Sport.720p.WEB.h264-OmarMateen
2016-06-24 17:50:51 MP3 Rochelle_Jordan-1021-WEB-2014-ENRAGED
2016-06-24 17:50:53 X264-SD LEGO.DC.Comics.Super.Heroes.Justice.League.Gotham.City.Breakout.2016.BDRip.x264-ROVERS
2016-06-24 17:51:05 MP3 Slakah_The_Beatchild-Something_Forever_(Special_Edition)-BONUS_TRACKS-WEB-2011-ENRAGED
2016-06-24 17:51:12 TV-HD Football.Made.in.Germany.720p.WEB.h264-OmarMateen
2016-06-24 17:51:15 MP3 Slakah_the_Beatchild-The_Bonus_Tracks_(Soul_Movement_Vol_2)-WEB-2013-ENRAGED
2016-06-24 17:51:27 MP3 Slakah_The_Beatchild-Something_About_Her-Byrams_Groove_(Cut_A_Rug)-Single-WEB-2014-ENRAGED
2016-06-24 17:51:46 TV-X264 How.Socially.Just.is.Germany.720p.WEB.h264-OmarMateen
2016-06-24 17:52:02 TV-X264 Is.the.EU.On.the.Verge.of.Breaking.Up.720p.WEB.h264-OmarMateen
2016-06-24 17:52:26 TV-X264 Safet.Dances.720p.WEB.h264-OmarMateen
2016-06-24 17:52:47 TV-X264 The.Future.of.Work.720p.WEB.h264-OmarMateen
2016-06-24 17:53:06 TV-X264 The.Sky.the.Sea.Antoine.de.Saint-Exupery.720p.WEB.h264-OmarMateen
2016-06-24 17:53:09 X264-HD LEGO.DC.Comics.Super.Heroes.Justice.League.Gotham.City.Breakout.2016.1080p.BluRay.x264-ROVERS
2016-06-24 17:53:29 TV-X264 Transit.Camp.Friedland.720p.WEB.h264-OmarMateen
2016-06-24 17:53:51 TV-X264-HD Uchuu.Patrol.Luluco.E09.INTERNAL.SUBFRENCH.1080p.WEBRip.X264-SLEEPINGFOREST
2016-06-24 17:53:56 TV720 Transit.Camp.Friedland.Part.2.720p.WEB.h264-OmarMateen
2016-06-24 17:54:03 TV-X264-HD Uchuu.Patrol.Luluco.E10.INTERNAL.SUBFRENCH.1080p.WEBRip.X264-SLEEPINGFOREST
2016-06-24 17:54:19 TV Uchuu.Patrol.Luluco.E11.INTERNAL.SUBFRENCH.1080p.WEBRip.X264-SLEEPINGFOREST
2016-06-24 17:54:24 TV720 Welcome.to.the.90s.Come.As.You.Are.720p.WEB.h264-OmarMateen
2016-06-24 17:55:23 TV720 Words.Against.Silence.Indonesias.Courageous.Writer.720p.WEB.h264-OmarMateen
2016-06-24 17:57:39 MP3 Twoloud_And_FRDY-Fix_Me_(Official_Parookaville_2016_Anthem)-(PBM041)-WEB-2016-UKHx
2016-06-24 17:57:48 MP3 Moby-Go__HI-LO_Remix-(SP1153)-WEB-2016-UKHx
2016-06-24 17:59:16 TV-X264 Mr.Robot.S02E00.dec0d3d.doc.720p.HDTV.x264-BATV
2016-06-24 17:59:17 TV Mr.Robot.S02E00.dec0d3d.doc.HDTV.x264-BATV
2016-06-24 18:01:37 ANIME Uchuu.Patrol.Luluco.E13.FiNAL.SUBFRENCH.720p.WEBRip.X264-SLEEPINGFOREST
2016-06-24 18:03:53 TV-X264-HD Uchuu.Patrol.Luluco.E13.FiNAL.SUBFRENCH.1080p.WEBRip.X264-SLEEPINGFOREST
2016-06-24 18:11:22 X264 Villads.Fra.Valby.2015.WEB.h264-MoA
2016-06-24 18:13:02 X264 Villads.Fra.Valby.2015.720p.WEB.h264-MoA
2016-06-24 18:16:21 TV-X264 Villads.Fra.Valby.2015.1080p.WEB.h264-MoA
2016-06-24 18:16:59 TV-X264 Conan.2016.06.23.Liam.Hemsworth.720p.HDTV.x264-CROOKS
2016-06-24 18:17:09 TV Conan.2016.06.23.Liam.Hemsworth.HDTV.x264-CROOKS
2016-06-24 18:19:41 MP3 Pet_Shop_Boys--TwentySomething-WEB-2016-WUS
2016-06-24 18:21:03 HDTV LEGO.DC.Comics.Super.Heroes.Justice.League.Gotham.City.Breakout.2016.German.720p.BluRay.x264-DOUCEMENT
2016-06-24 18:21:27 MP3 VA--Air_Is_Invisible-WEB-2016-WUS
2016-06-24 18:23:14 EBOOK LEGO.DC.Comics.Super.Heroes.Justice.League.Gotham.City.Breakout.2016.German.BDRip.x264-DOUCEMENT
2016-06-24 18:24:36 X264 Villads.Fra.Valby.2015.DANSH.DIRFIX.WEB.h264-MoA
2016-06-24 18:24:41 X264 Villads.Fra.Valby.2015.DANSH.DIRFIX.720p.WEB.h264-MoA
2016-06-24 18:24:43 X264 Villads.Fra.Valby.2015.DANSH.DIRFIX.1080pp.WEB.h264-MoA
2016-06-24 18:24:59 TV-HD LEGO.DC.Comics.Super.Heroes.Justice.League.Gotham.City.Breakout.2016.German.DL.1080p.BluRay.x264-DOUCEMENT
2016-06-24 18:25:42 TV-X264 Gordon.Ramsay.Rezepte.fuer.jeden.Tag.S01E13.Vegetarisch.GERMAN.DOKU.720p.HDTV.x264-KiTCHEN
2016-06-24 18:27:12 TV-X264 Gordon.Ramsay.Rezepte.fuer.jeden.Tag.S01E13.Vegetarisch.GERMAN.DOKU.HDTV.x264-KiTCHEN
2016-06-24 18:27:50 MP3 Galaxyano_-_Viva_Lestate_(Workout_Session)-(361459_9593231)-WEB-2016-ZzZz
2016-06-24 18:28:22 MP3 Le_Swedes_feat_Ian_Twice_-_All_Or_Nothing-(RU_71850)-WEB-2016-ZzZz
2016-06-24 18:28:43 MP3 Fountain_Of_Youth_-_High_Noon_EP-(BF_030)-WEB-2016-ZzZz
2016-06-24 18:28:45 DOKUHD Gordon.Ramsay.Rezepte.fuer.jeden.Tag.S01E14.Hausmannskost.GERMAN.DOKU.720p.HDTV.x264-KiTCHEN
2016-06-24 18:29:04 MP3 Florian_F_feat_Yaya_Diamond_-_Hey_DJ-(801436_0166087)-WEB-2016-ZzZz
2016-06-24 18:30:16 TV-DOKU-SD Gordon.Ramsay.Rezepte.fuer.jeden.Tag.S01E14.Hausmannskost.GERMAN.DOKU.HDTV.x264-KiTCHEN
2016-06-24 18:36:17 MP3 Electric_Passion_-_Get_Up-(LT_0163)-WEB-2014-ZzZz
2016-06-24 18:37:10 MP3 Mike_Squillo_-_First_Glance-(ESE021)-WEB-2016-QMI
2016-06-24 18:38:06 MP3 Dvit_Bousa--Album_Session-WEB-2016-WUS
2016-06-24 18:39:01 BLURAY From.Vegas.to.Macau.3.2016.COMPLETE.BLURAY-LAZERS
2016-06-24 18:39:06 MP3 Fourever1--All_About_Tonight_(Remix_Package_1)-WEB-2016-WUS
2016-06-24 18:40:08 MP3 Ogris_Debris--Brainfreeze-WEB-2016-WUS
2016-06-24 18:40:43 X264 Black.Dog.1998.720p.BluRay.x264-NOSCREENS
2016-06-24 18:41:03 MP3 BRIZZ-Baller_Baller_(JMC_32stel_Gruppe_J)-WEB-DE-2016-VOLDiES_iNT
2016-06-24 18:41:10 MP3 DEE_HO-Fake_Rapper_(JMC_32stel_Gruppe_J)-WEB-DE-2016-VOLDiES_iNT
2016-06-24 18:41:19 MP3 GAY_BUTTERS-Dildoking_(JMC_32stel_Gruppe_J)-WEB-DE-2016-VOLDiES_iNT
2016-06-24 18:41:24 MP3 JOHNNY_DIGGSON-Keine_Krone_(JMC_32stel_Gruppe_J)-WEB-DE-2016-VOLDiES_iNT
2016-06-24 18:41:33 MP3 LASKAH-Schwarze_Diamanten_(JMC_32stel_Gruppe_J)-WEB-DE-2016-VOLDiES_iNT
2016-06-24 18:41:36 MP3 NIRO_1NE-Von_Unten_Nach_Ganz_Oben_(JMC_32stel_Gruppe_J)-WEB-DE-2016-VOLDiES_iNT
2016-06-24 18:41:44 MP3 P-NIZ-The_Happening_(JMC_32stel_Gruppe_J)-WEB-DE-2016-VOLDiES_iNT
2016-06-24 18:41:50 MP3 R3Z-Get_Right_Pasha_Oder_Kennys_(JMC_32stel_Gruppe_J)-WEB-DE-2016-VOLDiES_iNT
2016-06-24 18:41:58 X264 Black.Dog.1998.1080p.BluRay.x264-MELiTE
2016-06-24 18:42:45 MP3 VA--Beach_Disco_(Island_Moods_And_Grooves_Volume_One)-WEB-2016-WUS
2016-06-24 18:43:57 MP3 Ekin_Fil--Being_Near-WEB-2016-WUS
2016-06-24 18:45:42 MP3 VA--Best_Of_Minimal_Modular_Techno-WEB-2016-WUS
2016-06-24 18:47:33 MP3 Cosmic_Rain--Approaching_Pluto-WEB-2016-WUS
2016-06-24 18:48:22 TV-X264-HD JoJo.no.Kimyou.na.Bouken.Third.Season.E08.INTERNAL.SUBFRENCH.1080p.WEBRip.X264-SLEEPINGFOREST
2016-06-24 18:48:39 TV JoJo.no.Kimyou.na.Bouken.Third.Season.E09.INTERNAL.SUBFRENCH.1080p.WEBRip.X264-SLEEPINGFOREST
2016-06-24 18:48:43 MP3 VA-Trance_100_Summer_2016-4CD-2016-wAx
2016-06-24 18:48:52 TV-X264 Mr.Robot.S02E00.dec0d3d.doc.1080p.WEB.h264-OmarMateen
2016-06-24 18:49:02 ANIME JoJo.no.Kimyou.na.Bouken.Third.Season.E10.INTERNAL.SUBFRENCH.1080p.WEBRip.X264-SLEEPINGFOREST
2016-06-24 18:49:19 MP3 Ben_E-Ghettogold-WEB-DE-2016-ALPMP3
2016-06-24 18:49:24 TV-X264 JoJo.no.Kimyou.na.Bouken.Third.Season.E11.INTERNAL.SUBFRENCH.1080p.WEBRip.X264-SLEEPINGFOREST
2016-06-24 18:49:40 TV-SD-DE iZombie.S02E04.German.Dubbed.WebRip.x264-ARC
2016-06-24 18:49:54 MP3 Bibi_Johns-Papa_Tanzt_Mambo_(50_Grosse_Erfolge)-WEB-DE-2016-ALPMP3_INT
2016-06-24 18:50:31 MP3 Doktor_Fleet-Mueller-WEB-DE-2016-ALPMP3
2016-06-24 18:50:54 TV-HD-X264 iZombie.S02E04.German.Dubbed.WebHD.720p.x264-ARC
2016-06-24 18:50:59 TV-X264 JoJo.no.Kimyou.na.Bouken.Third.Season.E13.SUBFRENCH.720p.WEBRip.X264-SLEEPINGFOREST
2016-06-24 18:51:06 MP3 Illuminate-Ohne_Worte_2-WEB-DE-2016-ALPMP3
2016-06-24 18:51:37 MP3 Joek2_Und_Nepo-Auge_Der_Pyramide-WEB-DE-2016-ALPMP3
2016-06-24 18:52:09 MP3 The_Messer-Kachelbad-WEB-DE-2016-ALPMP3
2016-06-24 18:52:30 MP3 Brzowski--Blooddrive_Vol_3-WEB-2016-WUS
2016-06-24 18:53:23 TV-X264 JoJo.no.Kimyou.na.Bouken.Third.Season.E13.SUBFRENCH.1080p.WEBRip.X264-SLEEPINGFOREST
2016-06-24 18:54:56 MP3 Mike_Clouds--ApolloS_Stamina-WEB-2016-WUS
2016-06-24 18:55:55 BLURAY Cemetery.of.Splendor.2015.COMPLETE.BLURAY-SUPERSIZE
2016-06-24 18:56:04 TV Weltjournal.Plus.Brasilien.-.Liebe.in.Zeiten.von.Zika.GERMAN.DOKU.HDTVRiP.x264-iNFOTv
2016-06-24 18:57:19 TVHD iZombie.S02E04.German.Dubbed.WebHD.1080p.x264-ARC
2016-06-24 18:57:29 TV-HD-X264 Weltjournal.Plus.Brasilien.-.Liebe.in.Zeiten.von.Zika.GERMAN.DOKU.HDTV.720p.x264-iNFOTv
2016-06-24 18:58:50 TV-X264 Weltjournal.Plus.Grenzueberwachung.-.ein.Milliardengeschaeft.GERMAN.DOKU.HDTVRiP.x264-iNFOTv
2016-06-24 18:59:05 MP3 Stylove_and_Frank_Lozano_-_Story_Of_My_Life-(GM_0079)-WEB-2016-ZzZz
2016-06-24 18:59:30 MP3 Free_2_Night_-_Free_Tonight_(2K16_Edition)-(10107461)-REMASTERED-WEB-2016-ZzZz
2016-06-24 19:00:00 TV-HD-X264 Weltjournal.Plus.Grenzueberwachung.-.ein.Milliardengeschaeft.GERMAN.DOKU.HDTV.720p.x264-iNFOTv
2016-06-24 19:00:52 MP3 Rick_Wesley_-_Axel_F-(WD_870)-WEB-2016-ZzZz
2016-06-24 19:00:56 TV-HD-DE Weltjournal.Plus.Toedliches.Spiel.-.Kinder.am.Abzug.GERMAN.DOKU.HDTV.720p.x264-iNFOTv
2016-06-24 19:01:43 X264 Weltjournal.Plus.Toedliches.Spiel.-.Kinder.am.Abzug.GERMAN.DOKU.HDTVRiP.x264-iNFOTv
2016-06-24 19:03:49 MP3 Zo-Freelance-WEB-2006-ENRAGED_iNT
2016-06-24 19:04:01 MP3 Zo_And_Asylum_7-Overdue_Process-WEB-2009-ENRAGED_iNT
2016-06-24 19:04:13 MP3 Zo-SunStorm-WEB-2010-ENRAGED_iNT
2016-06-24 19:04:25 MP3 Zo-ManMade-WEB-2013-ENRAGED_iNT
2016-06-24 19:04:36 MP3 Zo-We_Are_On_The_Move_(Black_Coffee_Remix)-A_Choice_Of_Weapons-Single-WEB-2014-ENRAGED
2016-06-24 19:04:48 MP3 Zo-SkyBreak-WEB-2016-ENRAGED
2016-06-24 19:06:33 MP3 Zo-Zo_Presents_Passion_And_Definition-WEB-2004-ENRAGED
2016-06-24 19:07:47 MP3 VA--Euphoria_Pt_7_The_House_Music_Selection-WEB-2016-WUS
2016-06-24 19:10:24 MP3 VA--Deep_Inside_Vol_4_Deep_House_Session-WEB-2016-WUS
2016-06-24 19:11:39 ANIME Kagewani.Second.Season.E13.FiNAL.SUBFRENCH.1080p.WEBRip.X264-SLEEPINGFOREST
2016-06-24 19:12:03 MP3 VA-Global_DJ_Broadcast_Top_20_June_2016-(BHDC355)-WEB-2016-wAx
2016-06-24 19:12:42 TV Kagewani.Second.Season.E13.FiNAL.SUBFRENCH.720p.WEBRip.X264-SLEEPINGFOREST
2016-06-24 19:13:28 MP3 VA--Electro_Stations_Four-WEB-2016-WUS
2016-06-24 19:13:45 GAMES Moon.Hunters.v1.0.2482.MULTI7-ALiAS
2016-06-24 19:15:17 MP3 Alexe_Gaudreault-Alexe_Gaudreault-FR-2016-DGN
2016-06-24 19:15:42 MP3 Max_Roach-The_Golden_Years-2009-DGN
2016-06-24 19:18:16 GAMES BLACKHOLE.Complete.Edition.MacOSX-ACTiVATED
2016-06-24 19:22:06 GAMES Goetia.MacOSX-ACTiVATED
2016-06-24 19:26:37 TV-X264-HD MotoGP.2016.Assen.Practice.One.720p.HDTV.x264-VERUM
2016-06-24 19:27:49 MP3 Guglielmo_Brunelli_And_Alessandro_Piga_-_90s_Week-(SP_1788)-WEB-2016-ZzZz
2016-06-24 19:28:57 MP3 Belocca_-_Poppin_Da_Bass-(MGM0340-WEB-2016-QMI
2016-06-24 19:39:43 BLURAY Trivisa.2016.COMPLETE.BLURAY-LAZERS
2016-06-24 19:47:07 TV-X264-HD TERRAFORMARS.Second.Season.E13.FiNAL.SUBFRENCH.720p.WEBRip.X264-SLEEPINGFOREST
2016-06-24 19:47:36 TV Penny.Dreadful.S03E09.iTALiAN.FiNAL.1080p.WEBRip.x264-NTROPiC
2016-06-24 19:47:37 TV-X264-HD TERRAFORMARS.Second.Season.E13.FiNAL.SUBFRENCH.1080p.WEBRip.X264-SLEEPINGFOREST
2016-06-24 19:51:17 TV-DOKU-SD-DE Ungezaehmt.Von.Mexiko.bis.Kanada.German.2015.DOKU.AC3.DL.DVDRip.x264-CDP
2016-06-24 19:52:50 XXX BLACKED.16.06.24.Marley.Matthews.XXX.1080p.MP4-KTR
2016-06-24 19:52:58 TV-X264 TERRAFORMARS.Second.Season.E08.INTERNAL.SUBFRENCH.1080p.WEBRip.X264-SLEEPINGFOREST
2016-06-24 19:55:20 TV TERRAFORMARS.Second.Season.E09.INTERNAL.SUBFRENCH.1080p.WEBRip.X264-SLEEPINGFOREST
2016-06-24 19:55:43 TV-X264-HD TERRAFORMARS.Second.Season.E10.INTERNAL.SUBFRENCH.1080p.WEBRip.X264-SLEEPINGFOREST
2016-06-24 19:56:14 TV TERRAFORMARS.Second.Season.E11.INTERNAL.SUBFRENCH.1080p.WEBRip.X264-SLEEPINGFOREST
2016-06-24 19:57:09 TV-X264 Kagewani.Second.Season.INTERNAL.E08.SUBFRENCH.1080p.WEBRip.X264-SLEEPINGFOREST
2016-06-24 19:57:30 0DAY Scientific.Toolworks.Understand.v4.0.845.Incl.Keygen-AMPED
2016-06-24 19:57:34 ANIME Kagewani.Second.Season.E09.INTERNAL.SUBFRENCH.1080p.WEBRip.X264-SLEEPINGFOREST
2016-06-24 19:57:43 0DAY Scientific.Toolworks.Understand.v4.0.845.LINUX-AMPED
2016-06-24 19:57:58 0DAY Scientific.Toolworks.Understand.v4.0.845.LINUX.X64-AMPED
2016-06-24 19:58:01 ANIME Kagewani.Second.Season.E10.INTERNAL.SUBFRENCH.1080p.WEBRip.X264-SLEEPINGFOREST
2016-06-24 19:58:12 0DAY Scientific.Toolworks.Understand.v4.0.845.MACOSX-AMPED
2016-06-24 19:58:25 0DAY Scientific.Toolworks.Understand.v4.0.845.SOLARIS-AMPED
2016-06-24 19:58:29 TV-X264 Kagewani.Second.Season.E11.INTERNAL.SUBFRENCH.1080p.WEBRip.X264-SLEEPINGFOREST
2016-06-24 19:58:40 TV-X264-HD Penny.Dreadful.S03E09.iTALiAN.FiNAL.720p.WEBRip.x264-NTROPiC
2016-06-24 19:58:42 0DAY Scientific.Toolworks.Understand.v4.0.845.X64.Incl.Keygen-AMPED
2016-06-24 19:59:39 0DAY Auslogics.File.Recovery.v7.0.0.0.Incl.Keygen-AMPED
2016-06-24 20:03:06 XXX-0DAY MyFriendsHotGirl.16.06.24.Rachael.Madori.XXX.2160p.MP4-KTR
2016-06-24 20:05:07 XXX MyWifesHotFriend.16.06.24.Juelz.Ventura.XXX.2160p.MP4-KTR
2016-06-24 20:07:54 MP3FR Anton-Danse_Pour_Moi-(WEB)-FR-2016-H5N1
2016-06-24 20:08:38 XXX MrsCreampie.16.06.24.Mia.Malkova.XXX.2160p.MP4-KTR
2016-06-24 20:08:49 MP3 Merk_and_Kremont_Ft_Steffen_Morrison_-_Dont_Need_No_Money-(SP1109)-WEB-2016-ZzZz
2016-06-24 20:09:12 MP3 VA_-_Top_20_Cz_2016-1-(536_862-6)-2CD-2016-ZzZz
2016-06-24 20:10:27 MP3 Claudio_Capeo-Riche-(WEB)-FR-2016-H5N1
2016-06-24 20:10:52 TVSD Dragons.Race.To.The.Edge.S05E01.FRENCH.WEBRip.x264-AMB3R
2016-06-24 20:11:26 MP3 Damso-Periscope-(WEB)-FR-2016-H5N1
2016-06-24 20:12:16 TV-X264 Dragons.Race.To.The.Edge.S05E02.FRENCH.WEBRip.x264-AMB3R
2016-06-24 20:13:13 MP3 Ring-Od_milosci_do_nienawisci-WEB-PL-2013-I_KnoW_INT
2016-06-24 20:13:18 XXX TonightsGirlfriend.16.06.24.Nina.North.XXX.2160p.MP4-KTR
2016-06-24 20:13:57 TVSD Dragons.Race.To.The.Edge.S05E03.FRENCH.WEBRip.x264-AMB3R
2016-06-24 20:15:14 TV-SD-X264 Dragons.Race.To.The.Edge.S05E04.FRENCH.WEBRip.x264-AMB3R
2016-06-24 20:15:33 DVDR She.Ra.Prinzessin.Der.Macht.S02E01.German.FS.BDRip.x264.iNTERNAL.REPACK-TVARCHiV
2016-06-24 20:15:50 MP3 Kendji_Girac-Sonrisa-(WEB)-FR-2016-H5N1
2016-06-24 20:16:10 XXXPAY VivThomas.16.06.24.Alexa.Tomas.And.Dorothy.Black.Fantasies.XXX.2160p.MP4-KTR
2016-06-24 20:16:30 TV-X264 Penny.Dreadful.S03E09.iTALiAN.FiNAL.WEBRip.x264-NTROPiC
2016-06-24 20:16:35 TV She.Ra.Prinzessin.Der.Macht.S02E02.German.FS.BDRip.x264.iNTERNAL.REPACK-TVARCHiV
2016-06-24 20:16:38 TV-X264 Dragons.Race.To.The.Edge.S05E05.FRENCH.WEBRip.x264-AMB3R
2016-06-24 20:17:25 MP3 Les_Fatals_Picards-A_La_Vie_A_Larmor_Feat_Les_3_Fromages-(WEB)-FR-2016-H5N1
2016-06-24 20:17:36 TVSD She.Ra.Prinzessin.Der.Macht.S02E03.German.FS.BDRip.x264.iNTERNAL.REPACK-TVARCHiV
2016-06-24 20:17:47 TV-X264 Villads.Fra.Valby.2015.REAL.DIRFIX.DANISH.WEB.h264-MoA
2016-06-24 20:17:57 TV-SD-X264 Dragons.Race.To.The.Edge.S05E06.FRENCH.WEBRip.x264-AMB3R
2016-06-24 20:18:07 MP3 Surowa_generacja-Wojownicy_Ulicy_i_Nie_jestes_jednym_z_nas-WEB-PL-2013-I_KnoW_INT
2016-06-24 20:18:39 MP3FR Nogam-Fatigue_(Radio_Edit)-(WEB)-FR-2016-H5N1
2016-06-24 20:19:50 MP3FR R.E.D-Compte_A_Rebours-(WEB)-FR-2016-H5N1
2016-06-24 20:21:00 MP3 S.Pri_Noir-Ensemble-(WEB)-FR-2016-H5N1
2016-06-24 20:21:02 TV-X264 Villads.Fra.Valby.2015.REAL.DIRFIX.DANISH.720p.WEB.h264-MoA
2016-06-24 20:21:40 X264 Villads.Fra.Valby.2015.REAL.DIRFIX.DANISH.1080p.WEB.h264-MoA
2016-06-24 20:22:19 MP3 Sadek-Le_Croupier-(WEB)-FR-2016-H5N1
2016-06-24 20:23:17 MP3 VA-Bandana_Music_3-(WEB)-FR-2016-H5N1
2016-06-24 20:25:29 TV Hap.and.Leonard.S01E04.SUBFRENCH.1080p.HDTV.x264-SH0W
2016-06-24 20:27:24 TV James.Corden.2016.06.23.Luke.Wilson.720p.HDTV.x264-CROOKS
2016-06-24 20:27:33 TV James.Corden.2016.06.23.Luke.Wilson.HDTV.x264-CROOKS
2016-06-24 20:32:26 TV 24.Hours.In.A.And.E.S11E06.720p.HDTV.x264-C4TV
2016-06-24 20:33:14 TV-SD-X264 24.Hours.In.A.And.E.S11E06.HDTV.x264-C4TV
2016-06-24 20:35:03 MP3 Cockney_Rejects-East_End_Blitz_and_Pieces-2012-iTS
2016-06-24 20:35:14 TV The.Secret.Life.Of.Kittens.S01E02.720p.HDTV.x264-C4TV
2016-06-24 20:36:32 TV-X264 The.Secret.Life.Of.Kittens.S01E02.HDTV.x264-C4TV
2016-06-24 20:36:35 XXX-720P My.Husband.Brought.Home.His.Mistress.8.2015.XXX.720p.HDTV.x264-REDX
2016-06-24 20:36:52 X264 Sam.Whiskey.1969.German.DL.1080p.BluRay.x264-CONTRiBUTiON
2016-06-24 20:37:46 TV Aquarius.US.S02E04.INTERNAL.720p.HDTV.x264-KILLERS
2016-06-24 20:38:34 XXX My.Husband.Brought.Home.His.Mistress.8.2015.XXX.1080p.HDTV.x264-REDX
2016-06-24 20:39:09 X264 The.Adderall.Diaries.2015.LIMITED.720p.BluRay.x264-DRONES
2016-06-24 20:39:17 TV Food.Unwrapped.S08E00.Not.To.Be.Missed.Missions.720p.HDTV.x264-C4TV
2016-06-24 20:39:46 TV-SD-X264 Dragons.Race.To.The.Edge.S05E07.FRENCH.WEBRip.x264-AMB3R
2016-06-24 20:41:21 TV Food.Unwrapped.S08E00.Not.To.Be.Missed.Missions.HDTV.x264-C4TV
2016-06-24 20:42:11 TV-X264 Tonight.S18E22.Food.Fraud.What.Are.We.Eating.720p.HDTV.x264-C4TV
2016-06-24 20:42:21 X264 Brooklyn.2015.SPANiSH.BDRip.x264-JODER
2016-06-24 20:42:32 X264 Brooklyn.2015.SPANiSH.MULTi.1080p.BluRay.x264-JODER
2016-06-24 20:42:40 TV The.Sandmen.Live.Fra.Tinderbox.2016.DANiSH.720p.HDTV.x264-DiViSiON
2016-06-24 20:42:51 TV Tonight.S18E22.Food.Fraud.What.Are.We.Eating.HDTV.x264-C4TV
2016-06-24 20:42:58 TV-X264 Tonight.S18E01-21.DIRFIX.720p.HDTV.x264-C4TV
2016-06-24 20:43:04 X264 Brooklyn.2015.SPANiSH.MULTi.720p.BluRay.x264-JODER
2016-06-24 20:43:05 TV-SD-X264 Tonight.S18E01-21.DIRFIX.HDTV.x264-C4TV
2016-06-24 20:43:56 TV-HD-X264 Bargain.Shop.Wars.S01E06.720p.HDTV.x264-C4TV
2016-06-24 20:44:31 TV-SD-X264 Bargain.Shop.Wars.S01E06.HDTV.x264-C4TV
2016-06-24 20:44:36 MP3 Mario_Hammer_And_The_Lonely_Robot_-_Lesprit_De_Lescalier_Remixes-(TRAUMV200-WEB)-2016-DD
2016-06-24 20:45:43 TV-X264 Inside.Birmingham.Childrens.Hospital.S01E03.720p.HDTV.x264-C4TV
2016-06-24 20:45:50 MP3 The_Avett_Brothers-True_Sadness-2016-FATHEAD
2016-06-24 20:46:05 0DAY Cursed-RAiN
2016-06-24 20:47:00 FLAC The_Avett_Brothers-True_Sadness-CD-FLAC-2016-FATHEAD
2016-06-24 20:47:12 EBOOK LEGO.DC.Comics.Super.Heroes.Justice.League.Gotham.City.Breakout.2016.DANiSH.720p.BluRay.x264-GNiSTOR
2016-06-24 20:47:35 TV Inside.Birmingham.Childrens.Hospital.S01E03.HDTV.x264-C4TV
2016-06-24 20:49:13 EBOOK LEGO.DC.Comics.Super.Heroes.Justice.League.Gotham.City.Breakout.2016.FiNNiSH.720p.BluRay.x264-GNiSTOR
2016-06-24 20:50:51 MP3 Circuito_Cerrado-Arrhythmia-2CD-2016-FWYH
2016-06-24 20:51:25 MP3 Decoded_Feedback-Dark_Passenger-2016-FWYH
2016-06-24 20:51:33 EBOOK LEGO.DC.Comics.Super.Heroes.Justice.League.Gotham.City.Breakout.2016.NORWEGiAN.720p.BluRay.x264-GNiSTOR
2016-06-24 20:52:01 MP3 Lords_Of_Acid-Smoking_Hot-2016-FWYH
2016-06-24 20:53:31 TV EU.Referendum.The.Result.2016.Part.One.720p.WEB.h264-C4TV
2016-06-24 20:54:17 X264 LEGO.DC.Comics.Super.Heroes.Justice.League.Gotham.City.Breakout.2016.SWEDiSH.720p.BluRay.x264-GNiSTOR
2016-06-24 20:57:47 PRE WWE.Superstars.2016.06.24.720p.WEB.h264-OVERTiME
2016-06-24 20:57:59 XVID LEGO.DC.Comics.Super.Heroes.Justice.League.Gotham.City.Breakout.2016.DANiSH.BDRip.x264-GNiSTOR
2016-06-24 20:59:35 EBOOK LEGO.DC.Comics.Super.Heroes.Justice.League.Gotham.City.Breakout.2016.FiNNiSH.BDRip.x264-GNiSTOR
2016-06-24 20:59:50 TV EU.Referendum.The.Result.2016.Part.Two.720p.WEB.h264-C4TV
2016-06-24 21:01:30 EBOOK LEGO.DC.Comics.Super.Heroes.Justice.League.Gotham.City.Breakout.2016.NORWEGiAN.BDRip.x264-GNiSTOR
2016-06-24 21:01:37 X264 Zootopia.2016.1080p.BluRay.x265.INTERNAL-FLAME
2016-06-24 21:04:07 EBOOK LEGO.DC.Comics.Super.Heroes.Justice.League.Gotham.City.Breakout.2016.SWEDiSH.BDRip.x264-GNiSTOR
2016-06-24 21:04:51 X264 EU.Referendum.The.Result.2016.Part.Three.720p.WEB.h264-C4TV
2016-06-24 21:05:12 TVSD WWE.Superstars.2016.06.24.WEB.h264-OVERTiME
2016-06-24 21:07:53 EBOOK LEGO.DC.Comics.Super.Heroes.Justice.League.Gotham.City.Breakout.2016.DANiSH.1080p.BluRay.x264-GNiSTOR
2016-06-24 21:08:07 DOKUHD Der.Katzenfluesterer.S06E06.GERMAN.DOKU.720p.HDTV.x264-WiSHTV
2016-06-24 21:09:08 DOKUSD Der.Katzenfluesterer.S06E06.GERMAN.DOKU.HDTVRiP.x264-WiSHTV
2016-06-24 21:10:09 TV Forged.in.Fire.Wettkampf.der.Schmiede.S02E06.GERMAN.DL.DOKU.1080p.HDTV.x264-WiSHTV
2016-06-24 21:10:13 X264 LEGO.DC.Comics.Super.Heroes.Justice.League.Gotham.City.Breakout.2016.FiNNiSH.1080p.BluRay.x264-GNiSTOR
2016-06-24 21:11:11 TV-X264 Forged.in.Fire.Wettkampf.der.Schmiede.S02E06.GERMAN.DL.DOKU.720p.HDTV.x264-WiSHTV
2016-06-24 21:12:25 EBOOK LEGO.DC.Comics.Super.Heroes.Justice.League.Gotham.City.Breakout.2016.NORWEGiAN.1080p.BluRay.x264-GNiSTOR
2016-06-24 21:13:02 DOKU-720P-DE Die.Nordstory.-.Der.Mann.der.die.Pferde.versteht.GERMAN.DOKU.720p.WebHD.x264-redTV
2016-06-24 21:14:02 TV-X264 Die.Nordstory.-.Der.Mann.der.die.Pferde.versteht.GERMAN.DOKU.WEBRiP.x264-redTV
2016-06-24 21:14:31 TV-X264 Forged.in.Fire.Wettkampf.der.Schmiede.S02E06.GERMAN.DOKU.HDTVRiP.x264-WiSHTV
2016-06-24 21:14:36 EBOOK LEGO.DC.Comics.Super.Heroes.Justice.League.Gotham.City.Breakout.2016.SWEDiSH.1080p.BluRay.x264-GNiSTOR
2016-06-24 21:15:00 X264 Die.Nordstory.-.Geschichten.aus.dem.Gutshaus.GERMAN.DOKU.720p.WebHD.x264-redTV
2016-06-24 21:15:03 PRE Die.Nordstory.-.Geschichten.aus.dem.Gutshaus.GERMAN.D.720p.WebHD.x264-redTV
2016-06-24 21:15:58 DIVXFR The.Fundamentals.of.Caring.2016.FRENCH.WEBRip.x264-SH0W
2016-06-24 21:16:00 XVID Die.Nordstory.-.Geschichten.aus.dem.Gutshaus.GERMAN.DOKU.WEBRiP.x264-redTV
2016-06-24 21:16:15 TV-X264 Fresh.Off.the.Boat.S01E07.GERMAN.1080p.HDTV.X264-WiSHTV
2016-06-24 21:16:59 X264 Die.Nordstory.-.Hamburgs.Bruecken.GERMAN.DOKU.720p.WebHD.x264-redTV
2016-06-24 21:17:38 TV-HD-X264 Fresh.Off.the.Boat.S01E07.GERMAN.720p.HDTV.X264-WiSHTV
2016-06-24 21:18:00 TV-X264 Die.Nordstory.-.Hamburgs.Bruecken.GERMAN.DOKU.WEBRiP.x264-redTV
2016-06-24 21:19:32 TV-SD-X264 Dragons.Race.To.The.Edge.S05E08.FRENCH.WEBRip.x264-AMB3R
2016-06-24 21:19:40 X264 The.Adderall.Diaries.2015.LIMITED.1080p.BluRay.x264-DRONES
2016-06-24 21:20:32 MP3 Sexpress_-_Enjoy_This_Trip-CD-2016-DDS
2016-06-24 21:22:24 MP3 Steps_-_Stomp_All_Night_The_Remix_Anthology-3CD-2016-DDS
2016-06-24 21:22:43 MOV-X264 Z.for.Zachariah.GERMAN.2015.BDRip.x264-OldsMan
2016-06-24 21:22:51 TV Hautnah.Die.Methode.Hill.S04E01.GERMAN.DL.1080p.HDTV.x264-WiSHTV
2016-06-24 21:25:06 TV At.Midnight.2016.06.23.HDTV.x264-YesTV
2016-06-24 21:25:09 TV At.Midnight.2016.06.23.720p.HDTV.x264-YesTV
2016-06-24 21:25:47 TV Fresh.Off.the.Boat.S01E07.GERMAN.HDTVRiP.X264-WiSHTV
2016-06-24 21:26:04 TV Fresh.Off.the.Boat.S01E08.GERMAN.1080p.HDTV.X264-WiSHTV
2016-06-24 21:26:20 TV-HD-X264 Fresh.Off.the.Boat.S01E08.GERMAN.720p.HDTV.X264-WiSHTV
2016-06-24 21:26:35 TV-X264 Fresh.Off.the.Boat.S01E08.GERMAN.HDTVRiP.X264-WiSHTV
2016-06-24 21:26:52 MOV-TV Hautnah.Die.Methode.Hill.S04E01.GERMAN.DL.720p.HDTV.x264-WiSHTV
2016-06-24 21:29:49 FRENCH-TV Vinyl.S01E09.FRENCH.AHDTV.x264-Ryotox
2016-06-24 21:33:22 TV Billions.S01E07.FRENCH.AHDTV.x264-Ryotox
2016-06-24 21:36:07 TV-X264 Vinyl.S01E09.FRENCH.720p.AHDTV.x264-Ryotox
2016-06-24 21:39:05 TV-X264 Detectives.S02E03.FRENCH.1080p.HDTV.x264-Ryotox
2016-06-24 21:45:02 USANIME Dragons.Race.To.The.Edge.S05E09.FRENCH.WEBRip.x264-AMB3R
2016-06-24 21:46:35 XXX DeviceBondage.16.06.24.Stella.Cox.XXX.720p.MP4-KTR
2016-06-24 21:47:27 XXX SexAndSubmission.16.06.24.Penny.Pax.And.Nicole.Clitman.XXX.720p.MP4-KTR
2016-06-24 21:48:25 XXX TheTrainingofO.16.06.24.Callie.Klein.XXX.720p.MP4-KTR
2016-06-24 21:49:15 XXX-0DAY UltimateSurrender.16.06.24.Nikki.Delano.And.Adley.Rose.XXX.720p.MP4-KTR
2016-06-24 21:50:38 XXX-0DAY PublicDisgrace.16.06.24.Mona.Wales.And.Liz.Rainbow.XXX.720p.MP4-KTR
2016-06-24 21:51:48 MP3 Castro-The_River_Need-2014-MTD
2016-06-24 21:52:07 MP3 Comet_Kid-Forces_Of_Nature-2015-MTD
2016-06-24 21:53:28 TV-X264-SP House.Of.Lies.S05E10.SPANiSH.1080p.HDTV.x264-sPHD
2016-06-24 21:56:35 MP3 Mario_Hammer_And_The_Lonely_Robot_-_Lesprit_De_Lescalier-(TRAUMCD36-WEB)-2015-DD
2016-06-24 22:03:35 TV-DVDRIP Barging.Round.Britain.With.John.Sergeant.S02E01.DVDRip.x264-GHOULS
2016-06-24 22:04:20 TV Barging.Round.Britain.With.John.Sergeant.S02E02.DVDRip.x264-GHOULS
2016-06-24 22:04:50 TV-DVDRIP Barging.Round.Britain.With.John.Sergeant.S02E03.DVDRip.x264-GHOULS
2016-06-24 22:05:20 TV-DVDRIP Barging.Round.Britain.With.John.Sergeant.S02E04.DVDRip.x264-GHOULS
2016-06-24 22:05:44 TV-DVDRIP Barging.Round.Britain.With.John.Sergeant.S02E05.DVDRip.x264-GHOULS
2016-06-24 22:06:11 TV Barging.Round.Britain.With.John.Sergeant.S02E06.DVDRip.x264-GHOULS
2016-06-24 22:08:21 TV-X264-SP House.Of.Lies.S05E10.SPANiSH.720p.HDTV.x264-sPHD
2016-06-24 22:08:25 MP3 Beto_Lokz-A_Soldados_Confession-2016-CR
2016-06-24 22:08:53 TV-SD-SP House.Of.Lies.S05E10.SPANiSH.HDTV.x264-FCC
2016-06-24 22:10:51 TV Clerks.2.2006.German.720p.HDTV.x264-AIDA
2016-06-24 22:11:51 TV-X264-SP Veep.S05E08.SPANiSH.720p.HDTV.x264-sPHD
2016-06-24 22:12:13 TV-SD-SP Veep.S05E08.SPANiSH.HDTV.x264-FCC
2016-06-24 22:12:15 XXX PornFidelity.16.06.24.Lana.Rhoades.Breathless.XXX.1080p.MP4-KTR
2016-06-24 22:13:11 XBOX360 Mighty.No.9.XBLA.XBOX360-LiGHTFORCE
2016-06-24 22:13:32 XBOX Mighty.No.9.Ray.Expansion.DLC.XBOX360-LiGHTFORCE
2016-06-24 22:13:53 X264 Der.Hodscha.und.die.Piepenkoetter.2016.German.720p.HDTV.x264-AIDA
2016-06-24 22:14:18 MP3 Mood-Unreleased_93-95_EP-Vinyl-2016-FTD
2016-06-24 22:15:34 XXX-PAYSITE PornFidelity.16.06.24.Lana.Rhoades.Breathless.XXX.2160p.MP4-KTR
2016-06-24 22:16:55 TV-X264 Der.Hodscha.und.die.Piepenkoetter.2016.German.HDTVRip.x264-AIDA
2016-06-24 22:19:56 X264 Der.Rebell.1950.German.720p.HDTV.x264-AIDA
2016-06-24 22:21:14 TV The.Last.Ship.S02E11.iTALiAN.720p.HDTV.x264-iDiB
2016-06-24 22:22:16 TV-X264 The.Last.Ship.S02E12.iTALiAN.720p.HDTV.x264-iDiB
2016-06-24 22:22:20 TV Eastenders.2016.06.24.720p.HDTV.x264-AVR
2016-06-24 22:22:39 TV-X264-SD The.Last.Ship.S02E11.iTALiAN.HDTV.x264-iDiB
2016-06-24 22:23:01 TV The.Last.Ship.S02E12.iTALiAN.HDTV.x264-iDiB
2016-06-24 22:23:20 TV-X264 Togetherness.S02E05.FRENCH.DiRFiX.720p.AHDTV.x264-Ryotox
2016-06-24 22:23:31 TVHD Togetherness.S02E06.FRENCH.DiRFiX.720p.AHDTV.x264-Ryotox
2016-06-24 22:25:54 MP3 Digital_Punk_-_Unleashed_040-CABLE-06-24-2016-TALiON
2016-06-24 22:26:00 X264-HD Fred.Vargas.Es.geht.noch.ein.Zug.von.der.Gare.du.Nord.2009.German.720p.HDTV.x264-AIDA
2016-06-24 22:28:27 TV The.Sound.of.War.Wenn.Helden.Sterben.1998.German.DL.1080p.HDTV.x264-muhHD
2016-06-24 22:29:01 TV Taxichauffeur.Baenz.1957.German.720p.HDTV.x264-AIDA
2016-06-24 22:30:33 FRTVHD Penny.Dreadful.S02E05.MULTi.1080p.BluRay.x264-AiRTV
2016-06-24 22:32:04 TV-X264 Taxichauffeur.Baenz.1957.German.HDTVRip.x264-AIDA
2016-06-24 22:33:29 MP3 Armin_Van_Buuren_-_A_State_of_Trance_769-SAT-06-23-2016-TALiON
2016-06-24 22:34:34 MP3 R3hab_-_I_Need_R3hab_195-SAT-06-22-2016-TALiON
2016-06-24 22:34:40 MP3 Michael_Woods_-_Diffused_Music_139-SAT-06-21-2016-TALiON
2016-06-24 22:35:47 MP3 Heidi_-_BBC_Radio1_Residency__Incl_Matthew_Dear_Guestmix-SAT-06-23-2016-TALiON
2016-06-24 22:37:14 MP3 Kode9_-_BBC_Radio1_Residency-SAT-06-24-2016-TALiON
2016-06-24 22:37:47 MP3 Toddla_T_-_BBC_Radio1__Incl_Dubamine_Guestmix-SAT-06-24-2016-TALiON
2016-06-24 22:37:52 TV Dragons.Race.To.The.Edge.S05E10.FRENCH.WEBRip.x264-AMB3R
2016-06-24 22:39:41 FRTVHD Penny.Dreadful.S02E06.MULTi.1080p.BluRay.x264-AiRTV
2016-06-24 22:46:07 FRTVHD Penny.Dreadful.S02E07.MULTi.1080p.BluRay.x264-AiRTV
2016-06-24 22:48:03 BLURAY Sam.Whiskey.1969.COMPLETE.BLURAY-UltraHD
2016-06-24 22:50:29 MP3 Franky_Rizardo_-_Flow_143-CABLE-06-24-2016-TALiON
2016-06-24 22:52:07 TV 25.Cents.1995.GERMAN.720p.HDTV.x264-FiLMCHEN
2016-06-24 22:52:09 MP3 Coskun_Simsek_-_Labyrinth_(Frisky_Radio)-SBD-06-20-2016-TALiON_INT
2016-06-24 22:52:18 MP3 Ozgur_Ozkan_-_Slow_Motion_(Frisky_Radio)-SBD-06-20-2016-TALiON_INT
2016-06-24 22:52:29 MP3 S.T.R.I.T._-_Labyrinth_(Frisky_Radio)-SBD-06-20-2016-TALiON_INT
2016-06-24 22:53:31 MP3 Danny_Lloyd_-_Traveler_(Frisky_Radio)-SBD-06-20-2016-TALiON_INT
2016-06-24 22:53:39 MP3 Facundo_Mohrr_-_Kermesse_Sessions_(Frisky_Radio)-SBD-06-22-2016-TALiON_INT
2016-06-24 22:53:51 MP3 Kosmas_-_The_Tape_Archives_(Frisky_Radio)-SBD-06-22-2016-TALiON_INT
2016-06-24 22:54:00 MP3 Rodrigo_Valdovinos_-_Kermesse_Sessions_(Frisky_Radio)-SBD-06-22-2016-TALiON_INT
2016-06-24 22:54:06 MP3 Chris_Scott_-_Subsidence_Sounds_(Frisky_Radio)-SBD-06-21-2016-TALiON_INT
2016-06-24 22:54:16 MP3 Dale_Middleton_-_Subsidence_Sounds_(Frisky_Radio)-SBD-06-21-2016-TALiON_INT
2016-06-24 22:54:24 MP3 Dave_Seaman_-_Radio_Therapy_(Frisky_Radio)-SBD-06-21-2016-TALiON_INT
2016-06-24 22:54:25 TV-X264 Chacun.Son.Cinema.Jedem.Sein.Kino.2007.GERMAN.SUBBED.720p.HDTV.x264-FiLMCHEN
2016-06-24 22:55:31 TV Penny.Dreadful.S02E08.MULTi.1080p.BluRay.x264-AiRTV
2016-06-24 22:55:35 MP3 Just_Her_-_Helix_(Frisky_Radio)-SBD-06-22-2016-TALiON_INT
2016-06-24 22:55:42 MP3 Luke_Warren_-_Flux_(Frisky_Radio)-SBD-06-21-2016-TALiON_INT
2016-06-24 22:55:48 MP3 AFFKT_-_Artist_of_the_Week_(Frisky_Radio)-SBD-06-21-2016-TALiON_INT
2016-06-24 22:55:54 MP3 Glenn_Morrison_-_Sequence_(Frisky_Radio)-SBD-06-21-2016-TALiON_INT
2016-06-24 22:55:59 X264-HD Der.Tod.im.Kreis.2011.GERMAN.720p.HDTV.x264-FiLMCHEN
2016-06-24 22:56:03 MP3 Hernan_Cattaneo_-_Resident_268-SBD-06-22-2016-TALiON_INT
2016-06-24 22:56:11 MP3 Pao_Calderon_-_ObSessions_047_(Proton_Radio)-SBD-06-21-2016-TALiON_INT
2016-06-24 22:56:25 MP3 Lonya_-_Floating_Point_030_(Proton_Radio)-SBD-06-21-2016-TALiON_INT
2016-06-24 22:57:15 MP3 Manu_F_-_VS_(Proton_Radio)-SBD-06-22-2016-TALiON_INT
2016-06-24 22:57:25 MP3 Bobby_Deep_-_Deep_my_Way_(Frisky_Radio)-SBD-06-22-2016-TALiON_INT
2016-06-24 22:57:32 TV-X264 Die.Fremde.2001.GERMAN.DL.720p.HDTV.x264-FiLMCHEN
2016-06-24 22:57:49 MP3 Jey_Indahouse_-_Deep_my_Way_(Frisky_Radio)-SBD-06-22-2016-TALiON_INT
2016-06-24 22:58:03 MP3 Tommi_Oskari_-_Sound_Navigation_(Frisky_Radio)-SBD-06-22-2016-TALiON_INT
2016-06-24 22:58:12 MP3 Gilles_Peterson--Worldwide_International_1003-DVBS-06-24-2016-OMA
2016-06-24 22:58:40 X264 LEGO.DC.Comics.Super.Heroes.Justice.League.Gotham.City.Breakout.2016.FRENCH.720p.BluRay.x264-VENUE
2016-06-24 22:59:05 TV Julia.2008.GERMAN.720p.HDTV.x264-FiLMCHEN
2016-06-24 22:59:14 X264 The.Fundamentals.of.Caring.2016.FRENCH.720p.WEBRip.x264-SH0W
2016-06-24 23:00:16 TV-DVDRIP She.Ra.Prinzessin.Der.Macht.S02E04.German.FS.BDRip.x264.RERiP-TVARCHiV
2016-06-24 23:00:38 TV Mutantenwelt.2014.GERMAN.DL.720p.HDTV.x264.PROPER-FiLMCHEN
2016-06-24 23:01:17 TV-X264-SD She.Ra.Prinzessin.Der.Macht.S02E05.German.FS.BDRip.x264.RERiP-TVARCHiV
2016-06-24 23:01:21 X264-SD LEGO.DC.Comics.Super.Heroes.Justice.League.Gotham.City.Breakout.2016.FRENCH.BDRip.x264-VENUE
2016-06-24 23:02:12 TV-X264 Neun.Monate.1994.GERMAN.DL.720p.HDTV.x264-FiLMCHEN
2016-06-24 23:02:21 TV Penny.Dreadful.S02E09.MULTi.1080p.BluRay.x264-AiRTV
2016-06-24 23:03:25 EBOOK LEGO.DC.Comics.Super.Heroes.Justice.League.Gotham.City.Breakout.2016.MULTi.1080p.BluRay.x264-VENUE
2016-06-24 23:03:45 TV Perserkatzen.kennt.doch.keiner.2009.GERMAN.SUBBED.720p.HDTV.x264-FiLMCHEN
2016-06-24 23:05:14 FRTVHD Penny.Dreadful.S02E10.FiNAL..MULTi.1080p.BluRay.x264-AiRTV
2016-06-24 23:05:18 TV Quartett.D.Amour.Liebe.wen.du.willst.2010.GERMAN.720p.HDTV.x264-FiLMCHEN
2016-06-24 23:06:54 TV-X264 Unter.dem.Teppich.2016.GERMAN.720p.HDTV.x264-FiLMCHEN
2016-06-24 23:13:18 XXX Lesbian.Triangles.33.XXX.DVDRip.x264-NEGERSAFARI
2016-06-24 23:19:32 MP3 Claude_VonStroke_-_The_Birdhouse_041__Incl_Solardo_Guestmix-SAT-06-22-2016-TALiON
2016-06-24 23:20:31 FRTVHD Penny.Dreadful.S02E10.FiNAL.DiRFiX.MULTi.1080p.BluRay.x264-AiRTV
2016-06-24 23:20:55 HD720FR Interieur.Sport.Juin.2016.DOC.FRENCH.720p.HDTV.x264-SH0W
2016-06-24 23:22:22 DIVXFR Interieur.Sport.Juin.2016.DOC.FRENCH.HDTV.x264-SH0W
2016-06-24 23:22:25 TV Jimmy.Kimmel.2016.06.23.Kevin.Nealon.720p.HDTV.x264-CROOKS
2016-06-24 23:22:31 TV-XVID Jimmy.Kimmel.2016.06.23.Kevin.Nealon.HDTV.x264-CROOKS
2016-06-24 23:22:42 TV-XVID Limitless.S01E16.Die.geheime.Geschichte.des.Mr.Sands.German.Dubbed.HDTV.x264-ITG
2016-06-24 23:22:58 TV-HD-DE Limitless.S01E16.Die.geheime.Geschichte.des.Mr.Sands.GERMAN.DUBBED.720p.HDTV.x264-ZZGtv
2016-06-24 23:23:45 TV-X264-HD Erotische.Geschichten.aus.1001.Nacht.1974.German.DL.1080p.HDTV.x264-NORETAiL
2016-06-24 23:24:42 MP3 VA-Kicks_In_The_Crates-Supa_Side_Mixed_By_Odweeyne-Bootleg-2016-FTD
2016-06-24 23:26:25 MP3 VA-Kicks_In_The_Crates-Phat_Side_Mixed_By_Odweeyne-Bootleg-2016-FTD
2016-06-24 23:26:47 X264 Erotische.Geschichten.aus.1001.Nacht.1974.German.DL.720p.HDTV.x264-NORETAiL
2016-06-24 23:27:12 MP3 Peter_Bic_Project-Just_A_Story-WEB-2015-I_KnoW
2016-06-24 23:29:00 MVID The_Alan_Parsons_Project-Dont_Answer_Me-DVDRiP-x264-1984-LOVERS_iNT
2016-06-24 23:30:32 X264 A.Dog.Year.2009.German.DL.1080p.HDTV.x264-NORETAiL
2016-06-24 23:30:59 MBLURAY Leonard.Cohen.Im.Your.Man.2005.DOCU.1080p.MBLURAY.x264-DEV0
2016-06-24 23:31:06 MP3 Above_and_Beyond_-_Group_Therapy_187__Incl_Croquet_Club_Guestmix-SAT-06-24-2016-TALiON
2016-06-24 23:33:34 TV-X264 A.Dog.Year.2009.German.HDTVRip.x264-NORETAiL
2016-06-24 23:34:49 MP3 VA_-_Remixed_With_Love_By_Joey_Negro_Vol._Two-2CD-2016-SRG
2016-06-24 23:34:50 X264 Leonard.Cohen.Im.Your.Man.2005.DOCU.720p.MBLURAY.x264-DEV0
2016-06-24 23:36:38 TV Henrys.Liebesleben.1964.German.720p.DL.HDTV.x264-NORETAiL
2016-06-24 23:39:39 TV-X264 Henrys.Liebesleben.1964.German.DL.1080p.HDTV.x264-NORETAiL
2016-06-24 23:40:15 MP3 Les_Cowboys_Fringants--Motel_Capri-CD-FR-2000-WUS_INT
2016-06-24 23:41:34 MP3 Les_Cowboys_Fringants--Break_Syndical-CD-FR-2002-WUS_INT
2016-06-24 23:42:38 PRE Decay.The.Mare.MacOSX-ENiGMA
2016-06-24 23:42:42 XVID Die.Hoelle.Vietnams.1998.German.DL.1080p.HDTV.x264-NORETAiL
2016-06-24 23:43:47 MP3 Les_Cowboys_Fringants--La_Grand-Messe-CD-FR-2004-WUS_INT
2016-06-24 23:45:24 MP3 Les_Cowboys_Fringants--Sur_Un_Air_De_Deja_Vu-CD-FR-2008-WUS_INT
2016-06-24 23:45:30 X264 Tenemos.Que.Hablar.2016.SPANiSH.720p.BluRay.x264-JODER
2016-06-24 23:46:06 TV-X264 All.in.Alles.oder.nichts.2008.German.DL.1080p.HDTV.x264-NORETAiL
2016-06-24 23:46:31 MP3 Les_Cowboys_Fringants--Lexpedition-CD-FR-2008-WUS_INT
2016-06-24 23:46:38 MP3 Faces-Sound_Pills_(Pure_FM)-SBD-06-23-2016-B2RLiVE_INT
2016-06-24 23:47:09 MP3 Les_Cowboys_Fringants--Au_Zenith_De_Paris-CD-FR-2010-WUS_INT
2016-06-24 23:48:07 MP3 Les_Cowboys_Fringants--Que_Du_Vent-CD-FR-2011-WUS_INT
2016-06-24 23:48:49 MP3 Les_Cowboys_Fringants--Octobre-CD-FR-2015-WUS_INT
2016-06-24 23:49:09 TV-HD-X264 Die.exzentrischen.Cousinen.der.First.Lady.2009.German.DL.1080p.HDTV.x264-NORETAiL
2016-06-24 23:49:31 MP3 Summer_All_Stars_feat._Slza-Leto_lasky-WEB-CZ-2016-I_KnoW
2016-06-24 23:50:47 MP3 VA-Toggo_Music_Vol.43-REPACK-2016-VOiCE
2016-06-24 23:51:10 TV-X264 Eye.Candy.S01E06.SPANISH.720p.HDTV.x264-XPERT_HD
2016-06-24 23:51:26 TV-XVID Eye.Candy.S01E06.SPANISH.HDTV.x264-XPERT
2016-06-24 23:51:54 TV-X264-SP Eye.Candy.S01E07.SPANISH.720p.HDTV.x264-XPERT_HD
2016-06-24 23:52:09 XXX GoldenShowerPower.16.06.24.Sweet.Cat.XXX.1080p.MP4-KTR
2016-06-24 23:52:15 TV-SD-ES Eye.Candy.S01E07.SPANISH.HDTV.x264-XPERT
2016-06-24 23:52:22 TV-X264 Die.exzentrischen.Cousinen.der.First.Lady.2009.German.DL.720p.HDTV.x264-NORETAiL
2016-06-24 23:52:45 TVHD Eye.Candy.S01E08.SPANISH.720p.HDTV.x264-XPERT_HD
2016-06-24 23:53:03 TV-XVID Eye.Candy.S01E08.SPANISH.HDTV.x264-XPERT
2016-06-24 23:53:49 XXX GoldenShowerPower.16.06.24.Sweet.Cat.XXX.2160p.MKV-KTR
2016-06-24 23:54:55 XXX TheUpperFloor.16.06.24.Aiden.Starr.Veruca.James.Bobbi.Dylan.Nora.Riley.And.Sydney.Cole.XXX.720p.MP4-KTR
2016-06-24 23:55:07 MP3 DJ_Kim-Welkim_2-(WEB)-FR-2016-H5N1
2016-06-24 23:55:07 MP3 AJ_Batutta_-_Such_A_Good_Feeling-(RIOT_158)-WEB-2016-ZzZz
2016-06-24 23:55:24 TV-X264 Die.exzentrischen.Cousinen.der.First.Lady.2009.German.HDTVRip.x264-NORETAiL
2016-06-24 23:55:33 MP3 Charlie_Goddard_-_Rockstar_Remedy_(Original_Mix)-(CHEEK_276)-WEB-2016-ZzZz
2016-06-24 23:55:58 MP3 Logger_And_Houdini_-_The_Escapist_(Loggers_NBIB_Mix)-(RAR_011)-WEB-2016-ZzZz
2016-06-24 23:56:20 XXX WhippedAss.16.06.24.Abella.Danger.Mona.Wales.Mistress.Kara.And.Phoenix.Marie.XXX.720p.MP4-KTR
2016-06-24 23:56:31 MP3 Matt_Clarkson_-_Finger_Banger_(Original_Mix)-(VCR_219)-WEB-2016-ZzZz
2016-06-24 23:57:17 MP3 Paul_King_Vs_Bass_Jumper_-_U_Found_Out_(Original_Mix)-(VCR_220)-WEB-2016-ZzZz
2016-06-24 23:58:00 MP3 R3_-_Yes_(Hard_Version)-(ANR_015)-WEB-2016-ZzZz
2016-06-24 23:58:17 MP3 Coldplay_-_Live_at_Amsterdam_ArenA_(Amsterdam)-CABLE-06-23-2016-TALiON
2016-06-24 23:58:34 MP3 RR_Reject_-_Do_It_Right-(DD_009)-WEB-2016-ZzZz
2016-06-24 23:59:16 MP3 Vodka_And_Raki_-_Marihuana-(POPTRO0007)-WEB-SP-2016-ZzZz